Wetterdaten: Samstag, 18.07.2009
Datum Zeit Temp. Innen Temp. Aussen UV X Diff Temp. Feuchte Inne Feuchte Auss Sonnenschein Luftdruck Regen ab 0,1 Wind Sonnenschein Windben
18.07.2009 00:00 23,4 C 18,7 C 0,0 UV-I 0,0 C 47 % 58 % 0 % 1009,2 hPa 0,0 l/m 3,6 km/h (1 Bft) 0 min 5,3 km/h (1 Bft)
18.07.2009 00:02 23,2 C 18,7 C 0,0 UV-I 0,0 C 47 % 58 % 0 % 1009,2 hPa 0,0 l/m 3,8 km/h (1 Bft) 0 min 8,2 km/h (2 Bft)
18.07.2009 00:04 23,2 C 18,7 C 0,0 UV-I 0,0 C 47 % 59 % 0 % 1009,2 hPa 0,0 l/m 3,6 km/h (1 Bft) 0 min 3,6 km/h (1 Bft)
18.07.2009 00:06 23,2 C 18,6 C 0,0 UV-I 0,0 C 47 % 59 % 0 % 1009,2 hPa 0,0 l/m 3,4 km/h (1 Bft) 0 min 5,5 km/h (1 Bft)
18.07.2009 00:08 23,3 C 18,5 C 0,0 UV-I 0,0 C 47 % 59 % 0 % 1009,2 hPa 0,0 l/m 3,8 km/h (1 Bft) 0 min 3,4 km/h (1 Bft)
18.07.2009 00:10 23,3 C 18,5 C 0,0 UV-I 0,0 C 47 % 59 % 0 % 1009,2 hPa 0,0 l/m 4,1 km/h (1 Bft) 0 min 8,4 km/h (2 Bft)
18.07.2009 00:12 23,3 C 18,5 C 0,0 UV-I 0,0 C 47 % 59 % 0 % 1009,2 hPa 0,0 l/m 4,1 km/h (1 Bft) 0 min 10,8 km/h (2 Bft)
18.07.2009 00:14 23,2 C 18,4 C 0,0 UV-I 0,0 C 47 % 59 % 0 % 1009,2 hPa 0,0 l/m 4,1 km/h (1 Bft) 0 min 10,8 km/h (2 Bft)
18.07.2009 00:16 23,2 C 18,4 C 0,0 UV-I 0,0 C 47 % 59 % 0 % 1009,2 hPa 0,0 l/m 4,6 km/h (1 Bft) 0 min 4,6 km/h (1 Bft)
18.07.2009 00:18 23,2 C 18,5 C 0,0 UV-I 0,0 C 47 % 59 % 0 % 1009,0 hPa 0,0 l/m 4,6 km/h (1 Bft) 0 min 4,8 km/h (1 Bft)
18.07.2009 00:20 23,2 C 18,4 C 0,0 UV-I 0,0 C 47 % 59 % 0 % 1009,0 hPa 0,0 l/m 5,1 km/h (1 Bft) 0 min 14,4 km/h (3 Bft)
18.07.2009 00:22 23,2 C 18,3 C 0,0 UV-I 0,0 C 47 % 59 % 0 % 1009,0 hPa 0,0 l/m 4,8 km/h (1 Bft) 0 min 7,9 km/h (2 Bft)
18.07.2009 00:24 23,2 C 18,3 C 0,0 UV-I 0,0 C 47 % 59 % 0 % 1009,0 hPa 0,0 l/m 4,8 km/h (1 Bft) 0 min 14,4 km/h (3 Bft)
18.07.2009 00:26 23,2 C 18,3 C 0,0 UV-I 0,0 C 47 % 59 % 0 % 1009,0 hPa 0,0 l/m 4,6 km/h (1 Bft) 0 min 5,3 km/h (1 Bft)
18.07.2009 00:28 23,2 C 18,3 C 0,0 UV-I 0,0 C 47 % 59 % 0 % 1009,0 hPa 0,0 l/m 4,8 km/h (1 Bft) 0 min 6,3 km/h (2 Bft)
18.07.2009 00:30 23,2 C 18,3 C 0,0 UV-I 0,0 C 47 % 59 % 0 % 1009,0 hPa 0,0 l/m 4,8 km/h (1 Bft) 0 min 6,3 km/h (2 Bft)
18.07.2009 00:32 23,2 C 18,3 C 0,0 UV-I 0,0 C 47 % 59 % 0 % 1009,0 hPa 0,0 l/m 4,1 km/h (1 Bft) 0 min 5,5 km/h (1 Bft)
18.07.2009 00:34 23,1 C 18,1 C 0,0 UV-I 0,0 C 47 % 59 % 0 % 1009,0 hPa 0,0 l/m 4,1 km/h (1 Bft) 0 min 7,2 km/h (2 Bft)
18.07.2009 00:36 23,1 C 18,1 C 0,0 UV-I 0,0 C 47 % 59 % 0 % 1009,0 hPa 0,0 l/m 3,4 km/h (1 Bft) 0 min 4,8 km/h (1 Bft)
18.07.2009 00:38 23,1 C 18,0 C 0,0 UV-I 0,0 C 47 % 59 % 0 % 1008,4 hPa 0,0 l/m 3,1 km/h (1 Bft) 0 min 5,5 km/h (1 Bft)
18.07.2009 00:40 23,1 C 18,0 C 0,0 UV-I 0,0 C 47 % 59 % 0 % 1008,4 hPa 0,0 l/m 3,1 km/h (1 Bft) 0 min 2,9 km/h (1 Bft)
18.07.2009 00:42 23,1 C 18,1 C 0,0 UV-I 0,0 C 47 % 60 % 0 % 1008,4 hPa 0,0 l/m 2,6 km/h (1 Bft) 0 min 6,5 km/h (2 Bft)
18.07.2009 00:44 23,1 C 18,0 C 0,0 UV-I 0,0 C 47 % 60 % 0 % 1008,4 hPa 0,0 l/m 2,4 km/h (1 Bft) 0 min 0,0 km/h (0 Bft)
18.07.2009 00:46 23,0 C 17,9 C 0,0 UV-I 0,0 C 47 % 60 % 0 % 1008,4 hPa 0,0 l/m 2,6 km/h (1 Bft) 0 min 9,6 km/h (2 Bft)
18.07.2009 00:48 23,0 C 17,9 C 0,0 UV-I 0,0 C 47 % 60 % 0 % 1008,4 hPa 0,0 l/m 2,6 km/h (1 Bft) 0 min 8,7 km/h (2 Bft)
18.07.2009 00:50 23,0 C 17,8 C 0,0 UV-I 0,0 C 47 % 60 % 0 % 1008,4 hPa 0,0 l/m 2,6 km/h (1 Bft) 0 min 3,6 km/h (1 Bft)
18.07.2009 00:52 23,0 C 17,9 C 0,0 UV-I 0,0 C 47 % 61 % 0 % 1008,4 hPa 0,0 l/m 3,4 km/h (1 Bft) 0 min 6,5 km/h (2 Bft)
18.07.2009 00:54 23,0 C 17,8 C 0,0 UV-I 0,0 C 47 % 61 % 0 % 1008,4 hPa 0,0 l/m 3,6 km/h (1 Bft) 0 min 6,5 km/h (2 Bft)
18.07.2009 00:56 23,0 C 17,7 C 0,0 UV-I 0,0 C 47 % 61 % 0 % 1008,4 hPa 0,0 l/m 3,8 km/h (1 Bft) 0 min 6,5 km/h (2 Bft)
18.07.2009 00:58 23,0 C 17,7 C 0,0 UV-I 0,0 C 47 % 61 % 0 % 1008,6 hPa 0,0 l/m 3,8 km/h (1 Bft) 0 min 5,3 km/h (1 Bft)
18.07.2009 01:00 23,0 C 17,7 C 0,0 UV-I 0,0 C 47 % 61 % 0 % 1008,6 hPa 0,0 l/m 3,4 km/h (1 Bft) 0 min 2,6 km/h (1 Bft)
18.07.2009 01:02 23,0 C 17,6 C 0,0 UV-I 0,0 C 47 % 61 % 0 % 1008,6 hPa 0,0 l/m 3,4 km/h (1 Bft) 0 min 6,0 km/h (2 Bft)
18.07.2009 01:04 23,0 C 17,6 C 0,0 UV-I 0,0 C 47 % 61 % 0 % 1008,6 hPa 0,0 l/m 3,6 km/h (1 Bft) 0 min 2,4 km/h (1 Bft)
18.07.2009 01:06 22,9 C 17,7 C 0,0 UV-I 0,0 C 47 % 61 % 0 % 1008,6 hPa 0,0 l/m 3,1 km/h (1 Bft) 0 min 0,0 km/h (0 Bft)
18.07.2009 01:08 22,9 C 17,6 C 0,0 UV-I 0,0 C 47 % 62 % 0 % 1008,6 hPa 0,0 l/m 2,4 km/h (1 Bft) 0 min 3,6 km/h (1 Bft)
18.07.2009 01:10 22,9 C 17,6 C 0,0 UV-I 0,0 C 47 % 62 % 0 % 1008,6 hPa 0,0 l/m 2,2 km/h (1 Bft) 0 min 10,1 km/h (2 Bft)
18.07.2009 01:12 22,9 C 17,5 C 0,0 UV-I 0,0 C 48 % 62 % 0 % 1008,6 hPa 0,0 l/m 2,9 km/h (1 Bft) 0 min 9,1 km/h (2 Bft)
18.07.2009 01:14 22,9 C 17,5 C 0,0 UV-I 0,0 C 48 % 62 % 0 % 1008,6 hPa 0,0 l/m 3,1 km/h (1 Bft) 0 min 6,3 km/h (2 Bft)
18.07.2009 01:16 22,9 C 17,4 C 0,0 UV-I 0,0 C 48 % 63 % 0 % 1008,6 hPa 0,0 l/m 3,4 km/h (1 Bft) 0 min 8,2 km/h (2 Bft)
18.07.2009 01:18 22,9 C 17,4 C 0,0 UV-I 0,0 C 48 % 63 % 0 % 1008,5 hPa 0,0 l/m 3,8 km/h (1 Bft) 0 min 0,0 km/h (0 Bft)
18.07.2009 01:20 22,8 C 17,5 C 0,0 UV-I 0,0 C 48 % 63 % 0 % 1008,5 hPa 0,0 l/m 3,8 km/h (1 Bft) 0 min 3,8 km/h (1 Bft)
18.07.2009 01:22 22,8 C 17,5 C 0,0 UV-I 0,0 C 48 % 63 % 0 % 1008,5 hPa 0,0 l/m 3,6 km/h (1 Bft) 0 min 6,3 km/h (2 Bft)
18.07.2009 01:24 22,8 C 17,4 C 0,0 UV-I 0,0 C 48 % 63 % 0 % 1008,5 hPa 0,0 l/m 3,1 km/h (1 Bft) 0 min 2,4 km/h (1 Bft)
18.07.2009 01:26 22,8 C 17,3 C 0,0 UV-I 0,0 C 48 % 64 % 0 % 1008,5 hPa 0,0 l/m 3,1 km/h (1 Bft) 0 min 10,3 km/h (2 Bft)
18.07.2009 01:28 22,8 C 17,3 C 0,0 UV-I 0,0 C 48 % 64 % 0 % 1008,5 hPa 0,0 l/m 2,9 km/h (1 Bft) 0 min 6,7 km/h (2 Bft)
18.07.2009 01:30 22,8 C 17,3 C 0,0 UV-I 0,0 C 48 % 64 % 0 % 1008,5 hPa 0,0 l/m 3,1 km/h (1 Bft) 0 min 4,6 km/h (1 Bft)
18.07.2009 01:32 22,8 C 17,3 C 0,0 UV-I 0,0 C 48 % 64 % 0 % 1008,5 hPa 0,0 l/m 4,6 km/h (1 Bft) 0 min 6,0 km/h (2 Bft)
18.07.2009 01:34 22,8 C 17,2 C 0,0 UV-I 0,0 C 48 % 64 % 0 % 1008,5 hPa 0,0 l/m 5,1 km/h (1 Bft) 0 min 21,4 km/h (4 Bft)
18.07.2009 01:36 22,8 C 17,2 C 0,0 UV-I 0,0 C 48 % 64 % 0 % 1008,5 hPa 0,0 l/m 5,5 km/h (1 Bft) 0 min 9,6 km/h (2 Bft)
18.07.2009 01:38 22,7 C 17,3 C 0,0 UV-I 0,0 C 48 % 64 % 0 % 1008,2 hPa 0,0 l/m 5,5 km/h (1 Bft) 0 min 2,4 km/h (1 Bft)
18.07.2009 01:40 22,7 C 17,2 C 0,0 UV-I 0,0 C 48 % 64 % 0 % 1008,2 hPa 0,0 l/m 5,5 km/h (1 Bft) 0 min 6,0 km/h (2 Bft)
18.07.2009 01:42 22,7 C 17,2 C 0,0 UV-I 0,0 C 48 % 65 % 0 % 1008,2 hPa 0,0 l/m 5,1 km/h (1 Bft) 0 min 12,8 km/h (3 Bft)
18.07.2009 01:44 22,7 C 17,1 C 0,0 UV-I 0,0 C 48 % 65 % 0 % 1008,2 hPa 0,0 l/m 4,1 km/h (1 Bft) 0 min 7,2 km/h (2 Bft)
18.07.2009 01:46 22,7 C 17,1 C 0,0 UV-I 0,0 C 48 % 65 % 0 % 1008,2 hPa 0,0 l/m 4,6 km/h (1 Bft) 0 min 5,8 km/h (2 Bft)
18.07.2009 01:48 22,7 C 17,1 C 0,0 UV-I 0,0 C 48 % 65 % 0 % 1008,2 hPa 0,0 l/m 3,6 km/h (1 Bft) 0 min 4,8 km/h (1 Bft)
18.07.2009 01:50 22,6 C 17,1 C 0,0 UV-I 0,0 C 49 % 65 % 0 % 1008,2 hPa 0,0 l/m 3,6 km/h (1 Bft) 0 min 0,0 km/h (0 Bft)
18.07.2009 01:52 22,7 C 17,1 C 0,0 UV-I 0,0 C 49 % 65 % 0 % 1008,2 hPa 0,0 l/m 3,8 km/h (1 Bft) 0 min 7,5 km/h (2 Bft)
18.07.2009 01:54 22,6 C 17,1 C 0,0 UV-I 0,0 C 49 % 65 % 0 % 1008,2 hPa 0,0 l/m 4,1 km/h (1 Bft) 0 min 7,2 km/h (2 Bft)
18.07.2009 01:56 22,6 C 16,9 C 0,0 UV-I 0,0 C 49 % 65 % 0 % 1008,2 hPa 0,0 l/m 3,4 km/h (1 Bft) 0 min 3,8 km/h (1 Bft)
18.07.2009 01:58 22,6 C 16,9 C 0,0 UV-I 0,0 C 49 % 65 % 0 % 1008,3 hPa 0,0 l/m 3,1 km/h (1 Bft) 0 min 3,8 km/h (1 Bft)
18.07.2009 02:00 22,6 C 16,8 C 0,0 UV-I 0,0 C 49 % 66 % 0 % 1008,3 hPa 0,0 l/m 2,9 km/h (1 Bft) 0 min 0,0 km/h (0 Bft)
18.07.2009 02:02 22,6 C 16,8 C 0,0 UV-I 0,0 C 49 % 66 % 0 % 1008,3 hPa 0,0 l/m 3,1 km/h (1 Bft) 0 min 5,3 km/h (1 Bft)
18.07.2009 02:04 22,6 C 16,9 C 0,0 UV-I 0,0 C 49 % 66 % 0 % 1008,3 hPa 0,0 l/m 3,1 km/h (1 Bft) 0 min 4,6 km/h (1 Bft)
18.07.2009 02:06 22,6 C 16,8 C 0,0 UV-I 0,0 C 49 % 66 % 0 % 1008,3 hPa 0,0 l/m 3,4 km/h (1 Bft) 0 min 5,5 km/h (1 Bft)
18.07.2009 02:08 22,6 C 16,8 C 0,0 UV-I 0,0 C 49 % 66 % 0 % 1008,3 hPa 0,0 l/m 3,6 km/h (1 Bft) 0 min 8,9 km/h (2 Bft)
18.07.2009 02:10 22,5 C 16,7 C 0,0 UV-I 0,0 C 49 % 66 % 0 % 1008,3 hPa 0,0 l/m 4,3 km/h (1 Bft) 0 min 8,2 km/h (2 Bft)
18.07.2009 02:12 22,5 C 16,7 C 0,0 UV-I 0,0 C 49 % 66 % 0 % 1008,3 hPa 0,0 l/m 4,3 km/h (1 Bft) 0 min 0,0 km/h (0 Bft)
18.07.2009 02:14 22,5 C 16,7 C 0,0 UV-I 0,0 C 49 % 67 % 0 % 1008,3 hPa 0,0 l/m 4,6 km/h (1 Bft) 0 min 9,9 km/h (2 Bft)
18.07.2009 02:16 22,5 C 16,6 C 0,0 UV-I 0,0 C 49 % 67 % 0 % 1008,3 hPa 0,0 l/m 5,5 km/h (1 Bft) 0 min 11,3 km/h (2 Bft)
18.07.2009 02:18 22,5 C 16,7 C 0,0 UV-I 0,0 C 49 % 67 % 0 % 1008,4 hPa 0,0 l/m 5,3 km/h (1 Bft) 0 min 8,2 km/h (2 Bft)
18.07.2009 02:20 22,4 C 16,6 C 0,0 UV-I 0,0 C 49 % 67 % 0 % 1008,4 hPa 0,0 l/m 5,1 km/h (1 Bft) 0 min 5,5 km/h (1 Bft)
18.07.2009 02:22 22,4 C 16,5 C 0,0 UV-I 0,0 C 49 % 67 % 0 % 1008,4 hPa 0,0 l/m 4,8 km/h (1 Bft) 0 min 6,0 km/h (2 Bft)
18.07.2009 02:24 22,4 C 16,5 C 0,0 UV-I 0,0 C 49 % 68 % 0 % 1008,4 hPa 0,0 l/m 5,3 km/h (1 Bft) 0 min 6,0 km/h (2 Bft)
18.07.2009 02:26 22,4 C 16,5 C 0,0 UV-I 0,0 C 49 % 68 % 0 % 1008,4 hPa 0,0 l/m 4,8 km/h (1 Bft) 0 min 4,8 km/h (1 Bft)
18.07.2009 02:28 22,4 C 16,4 C 0,0 UV-I 0,0 C 49 % 68 % 0 % 1008,4 hPa 0,0 l/m 4,1 km/h (1 Bft) 0 min 11,3 km/h (2 Bft)
18.07.2009 02:30 22,4 C 16,5 C 0,0 UV-I 0,0 C 49 % 68 % 0 % 1008,4 hPa 0,0 l/m 4,1 km/h (1 Bft) 0 min 7,0 km/h (2 Bft)
18.07.2009 02:32 22,4 C 16,4 C 0,0 UV-I 0,0 C 49 % 68 % 0 % 1008,4 hPa 0,0 l/m 4,3 km/h (1 Bft) 0 min 11,1 km/h (2 Bft)
18.07.2009 02:34 22,4 C 16,4 C 0,0 UV-I 0,0 C 49 % 68 % 0 % 1008,4 hPa 0,0 l/m 4,1 km/h (1 Bft) 0 min 9,9 km/h (2 Bft)
18.07.2009 02:36 22,4 C 16,4 C 0,0 UV-I 0,0 C 49 % 68 % 0 % 1008,4 hPa 0,0 l/m 4,3 km/h (1 Bft) 0 min 5,1 km/h (1 Bft)
18.07.2009 02:38 22,4 C 16,3 C 0,0 UV-I 0,0 C 49 % 68 % 0 % 1008,4 hPa 0,0 l/m 4,1 km/h (1 Bft) 0 min 4,8 km/h (1 Bft)
18.07.2009 02:40 22,4 C 16,3 C 0,0 UV-I 0,0 C 49 % 68 % 0 % 1008,4 hPa 0,0 l/m 3,8 km/h (1 Bft) 0 min 2,4 km/h (1 Bft)
18.07.2009 02:42 22,2 C 16,2 C 0,0 UV-I 0,0 C 50 % 69 % 0 % 1008,4 hPa 0,0 l/m 3,8 km/h (1 Bft) 0 min 11,1 km/h (2 Bft)
18.07.2009 02:44 22,3 C 16,3 C 0,0 UV-I 0,0 C 50 % 69 % 0 % 1008,4 hPa 0,0 l/m 4,1 km/h (1 Bft) 0 min 5,8 km/h (2 Bft)
18.07.2009 02:46 22,3 C 16,3 C 0,0 UV-I 0,0 C 50 % 69 % 0 % 1008,4 hPa 0,0 l/m 4,1 km/h (1 Bft) 0 min 5,8 km/h (2 Bft)
18.07.2009 02:48 22,3 C 16,2 C 0,0 UV-I 0,0 C 50 % 69 % 0 % 1008,4 hPa 0,0 l/m 4,1 km/h (1 Bft) 0 min 4,6 km/h (1 Bft)
18.07.2009 02:50 22,3 C 16,1 C 0,0 UV-I 0,0 C 50 % 70 % 0 % 1008,4 hPa 0,0 l/m 4,3 km/h (1 Bft) 0 min 7,2 km/h (2 Bft)
18.07.2009 02:52 22,2 C 16,1 C 0,0 UV-I 0,0 C 50 % 70 % 0 % 1008,4 hPa 0,0 l/m 4,1 km/h (1 Bft) 0 min 7,5 km/h (2 Bft)
18.07.2009 02:54 22,2 C 16,1 C 0,0 UV-I 0,0 C 50 % 69 % 0 % 1008,4 hPa 0,0 l/m 4,3 km/h (1 Bft) 0 min 4,6 km/h (1 Bft)
18.07.2009 02:56 22,2 C 16,1 C 0,0 UV-I 0,0 C 50 % 70 % 0 % 1008,4 hPa 0,0 l/m 3,8 km/h (1 Bft) 0 min 2,4 km/h (1 Bft)
18.07.2009 02:58 22,2 C 16,0 C 0,0 UV-I 0,0 C 50 % 70 % 0 % 1008,1 hPa 0,0 l/m 3,6 km/h (1 Bft) 0 min 7,2 km/h (2 Bft)
18.07.2009 03:00 22,2 C 16,0 C 0,0 UV-I 0,0 C 50 % 70 % 0 % 1008,1 hPa 0,0 l/m 3,1 km/h (1 Bft) 0 min 6,3 km/h (2 Bft)
18.07.2009 03:02 22,2 C 16,0 C 0,0 UV-I 0,0 C 50 % 70 % 0 % 1008,1 hPa 0,0 l/m 3,4 km/h (1 Bft) 0 min 8,2 km/h (2 Bft)
18.07.2009 03:04 22,2 C 16,1 C 0,0 UV-I 0,0 C 50 % 70 % 0 % 1008,1 hPa 0,0 l/m 3,4 km/h (1 Bft) 0 min 3,6 km/h (1 Bft)
18.07.2009 03:06 22,2 C 16,0 C 0,0 UV-I 0,0 C 50 % 70 % 0 % 1008,1 hPa 0,0 l/m 2,9 km/h (1 Bft) 0 min 6,7 km/h (2 Bft)
18.07.2009 03:08 22,2 C 16,0 C 0,0 UV-I 0,0 C 50 % 71 % 0 % 1008,1 hPa 0,0 l/m 3,1 km/h (1 Bft) 0 min 5,1 km/h (1 Bft)
18.07.2009 03:10 22,1 C 15,9 C 0,0 UV-I 0,0 C 50 % 71 % 0 % 1008,1 hPa 0,0 l/m 3,1 km/h (1 Bft) 0 min 2,6 km/h (1 Bft)
18.07.2009 03:12 22,1 C 15,9 C 0,0 UV-I 0,0 C 50 % 71 % 0 % 1008,1 hPa 0,0 l/m 3,4 km/h (1 Bft) 0 min 4,1 km/h (1 Bft)
18.07.2009 03:14 22,1 C 15,9 C 0,0 UV-I 0,0 C 50 % 71 % 0 % 1008,1 hPa 0,0 l/m 3,1 km/h (1 Bft) 0 min 6,0 km/h (2 Bft)
18.07.2009 03:16 22,1 C 15,9 C 0,0 UV-I 0,0 C 50 % 71 % 0 % 1008,1 hPa 0,0 l/m 3,4 km/h (1 Bft) 0 min 12,0 km/h (2 Bft)
18.07.2009 03:18 22,1 C 15,8 C 0,0 UV-I 0,0 C 50 % 71 % 0 % 1008,1 hPa 0,0 l/m 3,4 km/h (1 Bft) 0 min 0,0 km/h (0 Bft)
18.07.2009 03:20 22,1 C 15,8 C 0,0 UV-I 0,0 C 50 % 71 % 0 % 1008,1 hPa 0,0 l/m 2,9 km/h (1 Bft) 0 min 0,0 km/h (0 Bft)
18.07.2009 03:24 22,1 C 15,9 C 0,0 UV-I 0,0 C 51 % 71 % 0 % 1008,1 hPa 0,0 l/m 2,4 km/h (1 Bft) 0 min 4,6 km/h (1 Bft)
18.07.2009 03:26 22,0 C 15,8 C 0,0 UV-I 0,0 C 51 % 71 % 0 % 1008,1 hPa 0,0 l/m 2,2 km/h (1 Bft) 0 min 2,4 km/h (1 Bft)
18.07.2009 03:28 22,0 C 15,7 C 0,0 UV-I 0,0 C 51 % 71 % 0 % 1008,1 hPa 0,0 l/m 1,4 km/h (1 Bft) 0 min 0,0 km/h (0 Bft)
18.07.2009 03:32 22,0 C 15,7 C 0,0 UV-I 0,0 C 51 % 72 % 0 % 1008,1 hPa 0,0 l/m 1,9 km/h (1 Bft) 0 min 3,1 km/h (1 Bft)
18.07.2009 03:34 22,0 C 15,7 C 0,0 UV-I 0,0 C 51 % 72 % 0 % 1008,1 hPa 0,0 l/m 1,7 km/h (1 Bft) 0 min 0,0 km/h (0 Bft)
18.07.2009 03:36 22,0 C 15,6 C 0,0 UV-I 0,0 C 51 % 72 % 0 % 1008,1 hPa 0,0 l/m 1,9 km/h (1 Bft) 0 min 5,8 km/h (2 Bft)
18.07.2009 03:38 22,0 C 15,6 C 0,0 UV-I 0,0 C 51 % 72 % 0 % 1007,6 hPa 0,0 l/m 1,9 km/h (1 Bft) 0 min 5,1 km/h (1 Bft)
18.07.2009 03:40 22,0 C 15,6 C 0,0 UV-I 0,0 C 51 % 72 % 0 % 1007,6 hPa 0,0 l/m 1,9 km/h (1 Bft) 0 min 3,1 km/h (1 Bft)
18.07.2009 03:42 22,0 C 15,7 C 0,0 UV-I 0,0 C 51 % 72 % 0 % 1007,6 hPa 0,0 l/m 2,2 km/h (1 Bft) 0 min 2,9 km/h (1 Bft)
18.07.2009 03:44 22,0 C 15,7 C 0,0 UV-I 0,0 C 51 % 73 % 0 % 1007,6 hPa 0,0 l/m 2,4 km/h (1 Bft) 0 min 14,4 km/h (3 Bft)
18.07.2009 03:46 22,0 C 15,6 C 0,0 UV-I 0,0 C 51 % 73 % 0 % 1007,6 hPa 0,0 l/m 3,1 km/h (1 Bft) 0 min 2,6 km/h (1 Bft)
18.07.2009 03:48 22,0 C 15,6 C 0,0 UV-I 0,0 C 51 % 73 % 0 % 1007,6 hPa 0,0 l/m 3,6 km/h (1 Bft) 0 min 13,0 km/h (3 Bft)
18.07.2009 03:52 21,9 C 15,6 C 0,0 UV-I 0,0 C 51 % 73 % 0 % 1007,6 hPa 0,0 l/m 3,8 km/h (1 Bft) 0 min 3,1 km/h (1 Bft)
18.07.2009 03:54 21,9 C 15,5 C 0,0 UV-I 0,0 C 51 % 73 % 0 % 1007,6 hPa 0,0 l/m 3,8 km/h (1 Bft) 0 min 4,3 km/h (1 Bft)
18.07.2009 03:56 21,9 C 15,5 C 0,0 UV-I 0,0 C 51 % 73 % 0 % 1007,6 hPa 0,0 l/m 3,1 km/h (1 Bft) 0 min 10,3 km/h (2 Bft)
18.07.2009 03:58 21,9 C 15,5 C 0,0 UV-I 0,0 C 51 % 73 % 0 % 1008,1 hPa 0,0 l/m 3,4 km/h (1 Bft) 0 min 5,5 km/h (1 Bft)
18.07.2009 04:02 21,9 C 15,5 C 0,0 UV-I 0,0 C 51 % 73 % 0 % 1008,1 hPa 0,0 l/m 3,4 km/h (1 Bft) 0 min 8,2 km/h (2 Bft)
18.07.2009 04:04 21,9 C 15,5 C 0,0 UV-I 0,0 C 51 % 73 % 0 % 1008,1 hPa 0,0 l/m 3,1 km/h (1 Bft) 0 min 0,0 km/h (0 Bft)
18.07.2009 04:06 21,9 C 15,5 C 0,0 UV-I 0,0 C 51 % 74 % 0 % 1008,1 hPa 0,0 l/m 3,4 km/h (1 Bft) 0 min 2,9 km/h (1 Bft)
18.07.2009 04:08 21,8 C 15,4 C 0,0 UV-I 0,0 C 51 % 74 % 0 % 1008,1 hPa 0,0 l/m 3,6 km/h (1 Bft) 0 min 4,6 km/h (1 Bft)
18.07.2009 04:10 21,8 C 15,5 C 0,0 UV-I 0,0 C 52 % 74 % 0 % 1008,1 hPa 0,0 l/m 3,4 km/h (1 Bft) 0 min 0,0 km/h (0 Bft)
18.07.2009 04:12 21,8 C 15,5 C 0,0 UV-I 0,0 C 52 % 74 % 0 % 1008,1 hPa 0,0 l/m 2,4 km/h (1 Bft) 0 min 2,9 km/h (1 Bft)
18.07.2009 04:14 21,8 C 15,5 C 0,0 UV-I 0,0 C 52 % 74 % 0 % 1008,1 hPa 0,0 l/m 2,4 km/h (1 Bft) 0 min 5,3 km/h (1 Bft)
18.07.2009 04:16 21,8 C 15,4 C 0,0 UV-I 0,0 C 52 % 74 % 0 % 1008,1 hPa 0,0 l/m 2,6 km/h (1 Bft) 0 min 0,0 km/h (0 Bft)
18.07.2009 04:18 21,8 C 15,3 C 0,0 UV-I 0,0 C 52 % 75 % 0 % 1008,2 hPa 0,0 l/m 2,2 km/h (1 Bft) 0 min 4,3 km/h (1 Bft)
18.07.2009 04:20 21,8 C 15,3 C 0,0 UV-I 0,0 C 52 % 75 % 0 % 1008,2 hPa 0,0 l/m 3,4 km/h (1 Bft) 0 min 3,8 km/h (1 Bft)
18.07.2009 04:22 21,8 C 15,3 C 0,0 UV-I 0,0 C 52 % 75 % 0 % 1008,2 hPa 0,0 l/m 3,4 km/h (1 Bft) 0 min 3,8 km/h (1 Bft)
18.07.2009 04:24 21,8 C 15,3 C 0,0 UV-I 0,0 C 52 % 75 % 0 % 1008,2 hPa 0,0 l/m 3,6 km/h (1 Bft) 0 min 2,4 km/h (1 Bft)
18.07.2009 04:26 21,7 C 15,2 C 0,0 UV-I 0,0 C 52 % 75 % 0 % 1008,2 hPa 0,0 l/m 3,6 km/h (1 Bft) 0 min 2,4 km/h (1 Bft)
18.07.2009 04:28 21,7 C 15,2 C 0,0 UV-I 0,0 C 52 % 75 % 0 % 1008,2 hPa 0,0 l/m 3,8 km/h (1 Bft) 0 min 9,6 km/h (2 Bft)
18.07.2009 04:32 21,7 C 15,3 C 0,0 UV-I 0,0 C 52 % 76 % 0 % 1008,2 hPa 0,0 l/m 3,1 km/h (1 Bft) 0 min 0,0 km/h (0 Bft)
18.07.2009 04:34 21,7 C 15,2 C 0,0 UV-I 0,0 C 52 % 76 % 0 % 1008,2 hPa 0,0 l/m 3,1 km/h (1 Bft) 0 min 4,1 km/h (1 Bft)
18.07.2009 04:36 21,7 C 15,2 C 0,0 UV-I 0,0 C 52 % 76 % 0 % 1008,2 hPa 0,0 l/m 3,6 km/h (1 Bft) 0 min 5,1 km/h (1 Bft)
18.07.2009 04:38 21,7 C 15,1 C 0,0 UV-I 0,0 C 52 % 76 % 0 % 1008,1 hPa 0,0 l/m 3,6 km/h (1 Bft) 0 min 5,1 km/h (1 Bft)
18.07.2009 04:40 21,7 C 15,1 C 0,0 UV-I 0,0 C 52 % 76 % 0 % 1008,1 hPa 0,0 l/m 3,1 km/h (1 Bft) 0 min 4,3 km/h (1 Bft)
18.07.2009 04:42 21,7 C 15,1 C 0,0 UV-I 0,0 C 52 % 76 % 0 % 1008,1 hPa 0,0 l/m 3,1 km/h (1 Bft) 0 min 9,6 km/h (2 Bft)
18.07.2009 04:44 21,6 C 15,0 C 0,0 UV-I 0,0 C 52 % 76 % 0 % 1008,1 hPa 0,0 l/m 3,1 km/h (1 Bft) 0 min 0,0 km/h (0 Bft)
18.07.2009 04:46 21,7 C 15,0 C 0,0 UV-I 0,0 C 53 % 76 % 0 % 1008,1 hPa 0,0 l/m 3,6 km/h (1 Bft) 0 min 4,8 km/h (1 Bft)
18.07.2009 04:48 21,6 C 15,1 C 0,0 UV-I 0,0 C 53 % 76 % 0 % 1008,1 hPa 0,0 l/m 3,6 km/h (1 Bft) 0 min 8,4 km/h (2 Bft)
18.07.2009 04:50 21,6 C 15,1 C 0,0 UV-I 0,0 C 53 % 77 % 0 % 1008,1 hPa 0,0 l/m 3,4 km/h (1 Bft) 0 min 8,4 km/h (2 Bft)
18.07.2009 04:52 21,6 C 15,1 C 0,0 UV-I 0,0 C 53 % 77 % 0 % 1008,1 hPa 0,0 l/m 3,4 km/h (1 Bft) 0 min 3,6 km/h (1 Bft)
18.07.2009 04:54 21,6 C 14,9 C 0,0 UV-I 0,0 C 53 % 77 % 0 % 1008,1 hPa 0,0 l/m 3,6 km/h (1 Bft) 0 min 7,0 km/h (2 Bft)
18.07.2009 04:56 21,6 C 14,9 C 0,0 UV-I 0,0 C 53 % 77 % 0 % 1008,1 hPa 0,0 l/m 2,6 km/h (1 Bft) 0 min 3,1 km/h (1 Bft)
18.07.2009 04:58 21,6 C 14,9 C 0,0 UV-I 0,0 C 53 % 77 % 0 % 1008,1 hPa 0,0 l/m 2,6 km/h (1 Bft) 0 min 7,7 km/h (2 Bft)
18.07.2009 05:00 21,6 C 14,9 C 0,0 UV-I 0,0 C 53 % 77 % 0 % 1008,1 hPa 0,0 l/m 2,9 km/h (1 Bft) 0 min 6,0 km/h (2 Bft)
18.07.2009 05:02 21,6 C 14,9 C 0,0 UV-I 0,0 C 53 % 78 % 0 % 1008,1 hPa 0,0 l/m 2,6 km/h (1 Bft) 0 min 3,1 km/h (1 Bft)
18.07.2009 05:06 21,6 C 14,8 C 0,0 UV-I 0,0 C 53 % 78 % 0 % 1008,1 hPa 0,0 l/m 2,6 km/h (1 Bft) 0 min 8,9 km/h (2 Bft)
18.07.2009 05:08 21,6 C 14,8 C 0,0 UV-I 0,0 C 53 % 78 % 0 % 1008,1 hPa 0,0 l/m 2,6 km/h (1 Bft) 0 min 6,7 km/h (2 Bft)
18.07.2009 05:10 21,6 C 14,8 C 0,0 UV-I 0,0 C 53 % 78 % 0 % 1008,1 hPa 0,0 l/m 2,4 km/h (1 Bft) 0 min 6,3 km/h (2 Bft)
18.07.2009 05:14 21,6 C 14,9 C 0,0 UV-I 0,0 C 53 % 78 % 0 % 1008,1 hPa 0,0 l/m 2,6 km/h (1 Bft) 0 min 5,5 km/h (1 Bft)
18.07.2009 05:15 21,6 C 14,9 C 0,0 UV-I 0,0 C 53 % 78 % 0 % 1008,1 hPa 0,0 l/m 2,6 km/h (1 Bft) 0 min 5,5 km/h (1 Bft)
18.07.2009 05:16 21,6 C 14,9 C 0,0 UV-I 0,0 C 53 % 78 % 0 % 1008,1 hPa 0,0 l/m 2,6 km/h (1 Bft) 0 min 5,5 km/h (1 Bft)
18.07.2009 05:18 21,6 C 14,9 C 0,0 UV-I 0,0 C 53 % 78 % 0 % 1007,9 hPa 0,0 l/m 3,1 km/h (1 Bft) 0 min 9,9 km/h (2 Bft)
18.07.2009 05:20 21,6 C 14,8 C 0,0 UV-I 0,0 C 53 % 78 % 0 % 1007,9 hPa 0,0 l/m 3,4 km/h (1 Bft) 0 min 7,9 km/h (2 Bft)
18.07.2009 05:22 21,5 C 14,8 C 0,0 UV-I 0,0 C 53 % 78 % 0 % 1007,9 hPa 0,0 l/m 2,6 km/h (1 Bft) 0 min 0,0 km/h (0 Bft)
18.07.2009 05:24 21,5 C 14,8 C 0,0 UV-I 0,0 C 53 % 79 % 0 % 1007,9 hPa 0,0 l/m 2,6 km/h (1 Bft) 0 min 6,3 km/h (2 Bft)
18.07.2009 05:26 21,5 C 14,8 C 0,0 UV-I 0,0 C 53 % 78 % 0 % 1007,9 hPa 0,0 l/m 2,9 km/h (1 Bft) 0 min 7,9 km/h (2 Bft)
18.07.2009 05:28 21,5 C 14,8 C 0,0 UV-I 0,0 C 53 % 79 % 0 % 1007,9 hPa 0,0 l/m 3,1 km/h (1 Bft) 0 min 2,6 km/h (1 Bft)
18.07.2009 05:30 21,5 C 14,8 C 0,0 UV-I 0,0 C 54 % 78 % 0 % 1007,9 hPa 0,0 l/m 2,9 km/h (1 Bft) 0 min 4,6 km/h (1 Bft)
18.07.2009 05:32 21,5 C 14,8 C 0,0 UV-I 0,0 C 54 % 79 % 0 % 1007,9 hPa 0,0 l/m 2,4 km/h (1 Bft) 0 min 2,4 km/h (1 Bft)
18.07.2009 05:34 21,5 C 14,7 C 0,0 UV-I 0,0 C 54 % 79 % 0 % 1007,9 hPa 0,0 l/m 2,4 km/h (1 Bft) 0 min 5,5 km/h (1 Bft)
18.07.2009 05:36 21,5 C 14,7 C 0,0 UV-I 0,0 C 54 % 79 % 0 % 1007,9 hPa 0,0 l/m 2,2 km/h (1 Bft) 0 min 9,1 km/h (2 Bft)
18.07.2009 05:38 21,5 C 14,7 C 0,0 UV-I 0,0 C 54 % 79 % 0 % 1008,1 hPa 0,0 l/m 2,4 km/h (1 Bft) 0 min 7,0 km/h (2 Bft)
18.07.2009 05:40 21,5 C 14,7 C 0,0 UV-I 0,0 C 54 % 79 % 0 % 1008,1 hPa 0,0 l/m 3,4 km/h (1 Bft) 0 min 9,4 km/h (2 Bft)
18.07.2009 05:42 21,5 C 14,7 C 0,0 UV-I 0,0 C 54 % 79 % 0 % 1008,1 hPa 0,0 l/m 3,4 km/h (1 Bft) 0 min 2,6 km/h (1 Bft)
18.07.2009 05:44 21,4 C 14,8 C 0,0 UV-I 0,0 C 54 % 79 % 0 % 1008,1 hPa 0,0 l/m 4,1 km/h (1 Bft) 0 min 10,6 km/h (2 Bft)
18.07.2009 05:46 21,4 C 14,7 C 0,0 UV-I 0,0 C 54 % 79 % 0 % 1008,1 hPa 0,0 l/m 4,6 km/h (1 Bft) 0 min 3,8 km/h (1 Bft)
18.07.2009 05:48 21,4 C 14,7 C 0,0 UV-I 0,0 C 54 % 80 % 0 % 1008,1 hPa 0,0 l/m 4,1 km/h (1 Bft) 0 min 0,0 km/h (0 Bft)
18.07.2009 05:50 21,4 C 14,7 C 0,0 UV-I 0,0 C 54 % 80 % 0 % 1008,1 hPa 0,0 l/m 4,1 km/h (1 Bft) 0 min 6,3 km/h (2 Bft)
18.07.2009 05:52 21,4 C 14,7 C 0,0 UV-I 0,0 C 54 % 80 % 0 % 1008,1 hPa 0,0 l/m 3,4 km/h (1 Bft) 0 min 2,6 km/h (1 Bft)
18.07.2009 05:54 21,4 C 14,7 C 0,0 UV-I 0,0 C 54 % 80 % 0 % 1008,1 hPa 0,0 l/m 3,6 km/h (1 Bft) 0 min 0,0 km/h (0 Bft)
18.07.2009 05:56 21,4 C 14,7 C 0,0 UV-I 0,0 C 54 % 80 % 0 % 1008,1 hPa 0,0 l/m 3,1 km/h (1 Bft) 0 min 0,0 km/h (0 Bft)
18.07.2009 05:58 21,4 C 14,7 C 0,0 UV-I 0,0 C 54 % 80 % 0 % 1008,0 hPa 0,0 l/m 3,1 km/h (1 Bft) 0 min 3,1 km/h (1 Bft)
18.07.2009 06:00 21,4 C 14,8 C 0,0 UV-I 0,0 C 54 % 80 % 0 % 1008,0 hPa 0,0 l/m 3,8 km/h (1 Bft) 0 min 9,6 km/h (2 Bft)
18.07.2009 06:02 21,4 C 14,7 C 0,0 UV-I 0,0 C 54 % 80 % 0 % 1008,0 hPa 0,0 l/m 3,4 km/h (1 Bft) 0 min 4,3 km/h (1 Bft)
18.07.2009 06:04 21,4 C 14,8 C 0,0 UV-I 0,0 C 54 % 80 % 0 % 1008,0 hPa 0,0 l/m 3,4 km/h (1 Bft) 0 min 4,6 km/h (1 Bft)
18.07.2009 06:06 21,2 C 14,8 C 0,0 UV-I 0,0 C 54 % 80 % 0 % 1008,0 hPa 0,0 l/m 3,1 km/h (1 Bft) 0 min 4,6 km/h (1 Bft)
18.07.2009 06:08 21,4 C 14,8 C 0,0 UV-I 0,0 C 54 % 80 % 0 % 1008,0 hPa 0,0 l/m 3,1 km/h (1 Bft) 0 min 2,9 km/h (1 Bft)
18.07.2009 06:10 21,2 C 14,8 C 0,0 UV-I 0,0 C 55 % 80 % 0 % 1008,0 hPa 0,0 l/m 2,6 km/h (1 Bft) 0 min 4,1 km/h (1 Bft)
18.07.2009 06:12 21,4 C 14,9 C 0,0 UV-I 0,0 C 55 % 80 % 0 % 1008,0 hPa 0,0 l/m 2,4 km/h (1 Bft) 0 min 3,1 km/h (1 Bft)
18.07.2009 06:14 21,2 C 14,8 C 0,0 UV-I 0,0 C 55 % 80 % 0 % 1008,0 hPa 0,0 l/m 2,4 km/h (1 Bft) 0 min 5,3 km/h (1 Bft)
18.07.2009 06:16 21,2 C 14,9 C 0,0 UV-I 0,0 C 55 % 80 % 0 % 1008,0 hPa 0,0 l/m 2,2 km/h (1 Bft) 0 min 6,7 km/h (2 Bft)
18.07.2009 06:18 21,2 C 14,8 C 0,0 UV-I 0,0 C 55 % 80 % 0 % 1007,9 hPa 0,0 l/m 2,2 km/h (1 Bft) 0 min 6,5 km/h (2 Bft)
18.07.2009 06:20 21,2 C 14,8 C 0,0 UV-I 0,0 C 55 % 80 % 0 % 1007,9 hPa 0,0 l/m 2,2 km/h (1 Bft) 0 min 4,1 km/h (1 Bft)
18.07.2009 06:22 21,2 C 14,8 C 0,0 UV-I 0,0 C 55 % 80 % 0 % 1007,9 hPa 0,0 l/m 1,7 km/h (1 Bft) 0 min 0,0 km/h (0 Bft)
18.07.2009 06:24 21,2 C 14,8 C 0,0 UV-I 0,0 C 55 % 80 % 0 % 1007,9 hPa 0,0 l/m 1,7 km/h (1 Bft) 0 min 3,1 km/h (1 Bft)
18.07.2009 06:26 21,2 C 14,9 C 0,0 UV-I 0,0 C 55 % 80 % 0 % 1007,9 hPa 0,0 l/m 1,7 km/h (1 Bft) 0 min 3,1 km/h (1 Bft)
18.07.2009 06:28 21,2 C 14,9 C 0,0 UV-I 0,0 C 55 % 80 % 0 % 1007,9 hPa 0,0 l/m 1,4 km/h (1 Bft) 0 min 3,4 km/h (1 Bft)
18.07.2009 06:30 21,2 C 15,1 C 0,0 UV-I 0,0 C 55 % 80 % 0 % 1007,9 hPa 0,0 l/m 1,7 km/h (1 Bft) 0 min 2,9 km/h (1 Bft)
18.07.2009 06:32 21,2 C 15,1 C 0,0 UV-I 0,0 C 55 % 80 % 0 % 1007,9 hPa 0,0 l/m 2,2 km/h (1 Bft) 0 min 6,7 km/h (2 Bft)
18.07.2009 06:34 21,2 C 15,1 C 0,0 UV-I 0,0 C 55 % 80 % 0 % 1007,9 hPa 0,0 l/m 2,9 km/h (1 Bft) 0 min 0,0 km/h (0 Bft)
18.07.2009 06:36 21,2 C 15,0 C 0,0 UV-I 0,0 C 55 % 80 % 0 % 1007,9 hPa 0,0 l/m 2,6 km/h (1 Bft) 0 min 2,6 km/h (1 Bft)
18.07.2009 06:38 21,2 C 15,1 C 0,0 UV-I 0,0 C 55 % 80 % 0 % 1008,1 hPa 0,0 l/m 2,6 km/h (1 Bft) 0 min 5,3 km/h (1 Bft)
18.07.2009 06:40 21,2 C 15,1 C 0,0 UV-I 0,0 C 55 % 80 % 0 % 1008,1 hPa 0,0 l/m 2,9 km/h (1 Bft) 0 min 8,2 km/h (2 Bft)
18.07.2009 06:42 21,2 C 15,1 C 0,0 UV-I 0,0 C 55 % 80 % 0 % 1008,1 hPa 0,0 l/m 2,6 km/h (1 Bft) 0 min 0,0 km/h (0 Bft)
18.07.2009 06:44 21,2 C 15,2 C 0,0 UV-I 0,0 C 55 % 80 % 0 % 1008,1 hPa 0,0 l/m 1,7 km/h (1 Bft) 0 min 2,9 km/h (1 Bft)
18.07.2009 06:46 21,3 C 15,2 C 0,0 UV-I 0,0 C 55 % 80 % 0 % 1008,1 hPa 0,0 l/m 1,7 km/h (1 Bft) 0 min 0,0 km/h (0 Bft)
18.07.2009 06:48 21,2 C 15,2 C 0,0 UV-I 0,0 C 55 % 80 % 0 % 1008,1 hPa 0,0 l/m 1,7 km/h (1 Bft) 0 min 4,8 km/h (1 Bft)
18.07.2009 06:50 21,3 C 15,2 C 0,0 UV-I 0,0 C 55 % 80 % 0 % 1008,1 hPa 0,0 l/m 1,7 km/h (1 Bft) 0 min 4,8 km/h (1 Bft)
18.07.2009 06:52 21,2 C 15,3 C 0,0 UV-I 0,0 C 55 % 80 % 0 % 1008,1 hPa 0,0 l/m 1,4 km/h (1 Bft) 0 min 2,6 km/h (1 Bft)
18.07.2009 06:54 21,2 C 15,3 C 0,0 UV-I 0,0 C 55 % 80 % 0 % 1008,1 hPa 0,0 l/m 1,9 km/h (1 Bft) 0 min 3,6 km/h (1 Bft)
18.07.2009 06:56 21,2 C 15,3 C 0,1 UV-I 0,0 C 55 % 80 % 0 % 1008,1 hPa 0,0 l/m 2,2 km/h (1 Bft) 0 min 6,7 km/h (2 Bft)
18.07.2009 06:58 21,2 C 15,3 C 0,1 UV-I 0,0 C 55 % 80 % 0 % 1008,3 hPa 0,0 l/m 2,4 km/h (1 Bft) 0 min 2,4 km/h (1 Bft)
18.07.2009 07:00 21,2 C 15,2 C 0,1 UV-I 0,0 C 56 % 80 % 0 % 1008,3 hPa 0,0 l/m 2,2 km/h (1 Bft) 0 min 0,0 km/h (0 Bft)
18.07.2009 07:02 21,2 C 15,2 C 0,0 UV-I 0,0 C 56 % 80 % 0 % 1008,3 hPa 0,0 l/m 1,9 km/h (1 Bft) 0 min 2,6 km/h (1 Bft)
18.07.2009 07:04 21,2 C 15,3 C 0,0 UV-I 0,0 C 56 % 80 % 0 % 1008,3 hPa 0,0 l/m 1,9 km/h (1 Bft) 0 min 3,8 km/h (1 Bft)
18.07.2009 07:06 21,2 C 15,2 C 0,0 UV-I 0,0 C 56 % 81 % 0 % 1008,3 hPa 0,0 l/m 2,2 km/h (1 Bft) 0 min 5,8 km/h (2 Bft)
18.07.2009 07:08 21,2 C 15,3 C 0,0 UV-I 0,0 C 56 % 82 % 0 % 1008,3 hPa 0,0 l/m 2,2 km/h (1 Bft) 0 min 0,0 km/h (0 Bft)
18.07.2009 07:10 21,2 C 15,2 C 0,0 UV-I 0,0 C 56 % 82 % 0 % 1008,3 hPa 0,0 l/m 2,4 km/h (1 Bft) 0 min 2,4 km/h (1 Bft)
18.07.2009 07:12 21,2 C 15,2 C 0,1 UV-I 0,0 C 56 % 82 % 0 % 1008,3 hPa 0,0 l/m 2,2 km/h (1 Bft) 0 min 6,3 km/h (2 Bft)
18.07.2009 07:14 21,2 C 15,2 C 0,1 UV-I 0,0 C 57 % 83 % 0 % 1008,3 hPa 0,3 l/m 2,4 km/h (1 Bft) 0 min 0,0 km/h (0 Bft)
18.07.2009 07:16 21,2 C 15,1 C 0,1 UV-I 0,0 C 57 % 83 % 0 % 1008,3 hPa 0,1 l/m 1,9 km/h (1 Bft) 0 min 0,0 km/h (0 Bft)
18.07.2009 07:18 21,2 C 15,0 C 0,1 UV-I 0,0 C 57 % 84 % 0 % 1008,1 hPa 0,2 l/m 2,2 km/h (1 Bft) 0 min 0,0 km/h (0 Bft)
18.07.2009 07:20 21,2 C 15,1 C 0,1 UV-I 0,0 C 57 % 84 % 0 % 1008,1 hPa 0,0 l/m 2,2 km/h (1 Bft) 0 min 0,0 km/h (0 Bft)
18.07.2009 07:22 21,2 C 15,1 C 0,1 UV-I 0,0 C 58 % 84 % 0 % 1008,1 hPa 0,0 l/m 1,9 km/h (1 Bft) 0 min 0,0 km/h (0 Bft)
18.07.2009 07:24 21,2 C 15,1 C 0,1 UV-I 0,0 C 58 % 84 % 0 % 1008,1 hPa 0,0 l/m 1,7 km/h (1 Bft) 0 min 0,0 km/h (0 Bft)
18.07.2009 07:26 21,2 C 14,9 C 0,1 UV-I 0,0 C 58 % 84 % 0 % 1008,1 hPa 0,0 l/m 1,7 km/h (1 Bft) 0 min 0,0 km/h (0 Bft)
18.07.2009 07:28 21,2 C 14,9 C 0,1 UV-I 0,0 C 58 % 85 % 0 % 1008,1 hPa 0,1 l/m 1,7 km/h (1 Bft) 0 min 0,0 km/h (0 Bft)
18.07.2009 07:30 21,2 C 14,8 C 0,1 UV-I 0,0 C 58 % 85 % 0 % 1008,1 hPa 0,0 l/m 1,4 km/h (1 Bft) 0 min 2,9 km/h (1 Bft)
18.07.2009 07:32 21,2 C 14,9 C 0,1 UV-I 0,0 C 58 % 85 % 0 % 1008,1 hPa 0,0 l/m 1,7 km/h (1 Bft) 0 min 5,3 km/h (1 Bft)
18.07.2009 07:34 21,2 C 14,8 C 0,1 UV-I 0,0 C 58 % 85 % 0 % 1008,1 hPa 0,0 l/m 1,7 km/h (1 Bft) 0 min 2,6 km/h (1 Bft)
18.07.2009 07:36 21,4 C 14,8 C 0,3 UV-I 0,0 C 58 % 85 % 0 % 1008,1 hPa 0,0 l/m 1,4 km/h (1 Bft) 0 min 0,0 km/h (0 Bft)
18.07.2009 07:38 21,2 C 14,8 C 0,3 UV-I 0,0 C 59 % 86 % 0 % 1008,2 hPa 0,0 l/m 1,2 km/h (1 Bft) 0 min 2,4 km/h (1 Bft)
18.07.2009 07:40 21,4 C 14,8 C 0,3 UV-I 0,0 C 59 % 86 % 0 % 1008,2 hPa 0,0 l/m 1,2 km/h (1 Bft) 0 min 4,1 km/h (1 Bft)
18.07.2009 07:42 21,4 C 14,8 C 0,4 UV-I 0,0 C 59 % 86 % 0 % 1008,2 hPa 0,0 l/m 1,2 km/h (1 Bft) 0 min 2,6 km/h (1 Bft)
18.07.2009 07:44 21,4 C 14,8 C 0,4 UV-I 0,0 C 59 % 86 % 0 % 1008,2 hPa 0,0 l/m 0,5 km/h (0 Bft) 0 min 0,0 km/h (0 Bft)
18.07.2009 07:46 21,4 C 14,8 C 0,4 UV-I 0,0 C 59 % 86 % 0 % 1008,2 hPa 0,0 l/m 0,5 km/h (0 Bft) 0 min 0,0 km/h (0 Bft)
18.07.2009 07:48 21,4 C 14,8 C 0,4 UV-I 0,0 C 59 % 86 % 0 % 1008,2 hPa 0,0 l/m 0,7 km/h (0 Bft) 0 min 3,6 km/h (1 Bft)
18.07.2009 07:50 21,4 C 14,8 C 0,4 UV-I 0,0 C 59 % 86 % 0 % 1008,2 hPa 0,0 l/m 0,7 km/h (0 Bft) 0 min 3,4 km/h (1 Bft)
18.07.2009 07:52 21,4 C 14,8 C 0,4 UV-I 0,0 C 59 % 87 % 0 % 1008,2 hPa 0,0 l/m 1,4 km/h (1 Bft) 0 min 11,1 km/h (2 Bft)
18.07.2009 07:54 21,4 C 14,8 C 0,4 UV-I 0,0 C 59 % 87 % 0 % 1008,2 hPa 0,0 l/m 1,4 km/h (1 Bft) 0 min 7,2 km/h (2 Bft)
18.07.2009 07:56 21,4 C 14,8 C 0,4 UV-I 0,0 C 59 % 87 % 0 % 1008,2 hPa 0,0 l/m 2,2 km/h (1 Bft) 0 min 8,4 km/h (2 Bft)
18.07.2009 07:58 21,4 C 14,9 C 0,4 UV-I 0,0 C 59 % 87 % 0 % 1008,2 hPa 0,0 l/m 2,9 km/h (1 Bft) 0 min 5,3 km/h (1 Bft)
18.07.2009 08:00 21,4 C 14,8 C 0,4 UV-I 0,0 C 59 % 87 % 0 % 1008,2 hPa 0,0 l/m 2,9 km/h (1 Bft) 0 min 0,0 km/h (0 Bft)
18.07.2009 08:02 21,4 C 14,9 C 1,0 UV-I 0,0 C 59 % 87 % 0 % 1008,2 hPa 0,0 l/m 3,1 km/h (1 Bft) 0 min 0,0 km/h (0 Bft)
18.07.2009 08:04 21,4 C 14,8 C 1,0 UV-I 0,0 C 59 % 87 % 0 % 1008,2 hPa 0,0 l/m 2,9 km/h (1 Bft) 0 min 5,1 km/h (1 Bft)
18.07.2009 08:06 21,4 C 14,8 C 1,0 UV-I 0,0 C 59 % 87 % 0 % 1008,2 hPa 0,0 l/m 2,9 km/h (1 Bft) 0 min 3,4 km/h (1 Bft)
18.07.2009 08:08 21,4 C 14,8 C 0,8 UV-I 0,0 C 59 % 87 % 0 % 1008,2 hPa 0,0 l/m 2,4 km/h (1 Bft) 0 min 4,1 km/h (1 Bft)
18.07.2009 08:10 21,4 C 14,8 C 0,8 UV-I 0,0 C 59 % 87 % 0 % 1008,2 hPa 0,0 l/m 2,2 km/h (1 Bft) 0 min 0,0 km/h (0 Bft)
18.07.2009 08:12 21,4 C 14,8 C 0,9 UV-I 0,0 C 59 % 87 % 0 % 1008,2 hPa 0,0 l/m 1,7 km/h (1 Bft) 0 min 0,0 km/h (0 Bft)
18.07.2009 08:14 21,4 C 14,9 C 0,9 UV-I 0,0 C 59 % 87 % 0 % 1008,2 hPa 0,0 l/m 1,4 km/h (1 Bft) 0 min 6,5 km/h (2 Bft)
18.07.2009 08:16 21,4 C 14,9 C 0,9 UV-I 0,0 C 59 % 87 % 0 % 1008,2 hPa 0,0 l/m 1,4 km/h (1 Bft) 0 min 6,5 km/h (2 Bft)
18.07.2009 08:18 21,4 C 14,9 C 0,9 UV-I 0,0 C 59 % 87 % 0 % 1008,1 hPa 0,0 l/m 1,4 km/h (1 Bft) 0 min 6,0 km/h (2 Bft)
18.07.2009 08:20 21,4 C 14,9 C 0,9 UV-I 0,0 C 59 % 87 % 0 % 1008,1 hPa 0,0 l/m 1,9 km/h (1 Bft) 0 min 5,5 km/h (1 Bft)
18.07.2009 08:22 21,4 C 14,9 C 0,9 UV-I 0,0 C 59 % 87 % 0 % 1008,1 hPa 0,0 l/m 2,4 km/h (1 Bft) 0 min 0,0 km/h (0 Bft)
18.07.2009 08:24 21,4 C 15,0 C 0,9 UV-I 0,0 C 59 % 87 % 0 % 1008,1 hPa 0,0 l/m 2,4 km/h (1 Bft) 0 min 3,1 km/h (1 Bft)
18.07.2009 08:26 21,4 C 15,1 C 0,8 UV-I 0,0 C 59 % 87 % 0 % 1008,1 hPa 0,0 l/m 2,2 km/h (1 Bft) 0 min 0,0 km/h (0 Bft)
18.07.2009 08:28 21,4 C 15,1 C 0,8 UV-I 0,0 C 59 % 87 % 0 % 1008,1 hPa 0,0 l/m 2,4 km/h (1 Bft) 0 min 5,8 km/h (2 Bft)
18.07.2009 08:30 21,4 C 15,1 C 0,8 UV-I 0,0 C 59 % 87 % 0 % 1008,1 hPa 0,0 l/m 2,2 km/h (1 Bft) 0 min 7,5 km/h (2 Bft)
18.07.2009 08:32 21,4 C 15,1 C 1,2 UV-I 0,0 C 59 % 87 % 0 % 1008,1 hPa 0,0 l/m 1,4 km/h (1 Bft) 0 min 0,0 km/h (0 Bft)
18.07.2009 08:34 21,4 C 15,1 C 1,2 UV-I 0,0 C 59 % 87 % 0 % 1008,1 hPa 0,0 l/m 2,2 km/h (1 Bft) 0 min 6,5 km/h (2 Bft)
18.07.2009 08:36 21,4 C 15,1 C 1,2 UV-I 0,0 C 59 % 86 % 0 % 1008,1 hPa 0,0 l/m 2,2 km/h (1 Bft) 0 min 4,3 km/h (1 Bft)
18.07.2009 08:38 21,4 C 15,2 C 1,2 UV-I 0,0 C 59 % 87 % 0 % 1008,2 hPa 0,0 l/m 2,4 km/h (1 Bft) 0 min 0,0 km/h (0 Bft)
18.07.2009 08:40 21,4 C 15,2 C 1,2 UV-I 0,0 C 59 % 86 % 0 % 1008,2 hPa 0,0 l/m 2,4 km/h (1 Bft) 0 min 5,3 km/h (1 Bft)
18.07.2009 08:42 21,4 C 15,2 C 1,2 UV-I 0,0 C 59 % 86 % 0 % 1008,2 hPa 0,0 l/m 2,9 km/h (1 Bft) 0 min 15,9 km/h (3 Bft)
18.07.2009 08:44 21,4 C 15,2 C 1,5 UV-I 0,0 C 59 % 86 % 0 % 1008,2 hPa 0,0 l/m 2,4 km/h (1 Bft) 0 min 0,0 km/h (0 Bft)
18.07.2009 08:46 21,4 C 15,3 C 1,7 UV-I 0,0 C 59 % 86 % 0 % 1008,2 hPa 0,0 l/m 2,4 km/h (1 Bft) 0 min 4,6 km/h (1 Bft)
18.07.2009 08:48 21,5 C 15,2 C 1,7 UV-I 0,0 C 59 % 86 % 0 % 1008,2 hPa 0,0 l/m 2,2 km/h (1 Bft) 0 min 0,0 km/h (0 Bft)
18.07.2009 08:50 21,5 C 15,4 C 1,7 UV-I 0,0 C 59 % 86 % 0 % 1008,2 hPa 0,0 l/m 3,1 km/h (1 Bft) 0 min 6,5 km/h (2 Bft)
18.07.2009 08:54 21,5 C 15,5 C 1,4 UV-I 0,0 C 59 % 85 % 0 % 1008,2 hPa 0,0 l/m 3,8 km/h (1 Bft) 0 min 12,0 km/h (2 Bft)
18.07.2009 08:56 21,5 C 15,5 C 1,1 UV-I 0,0 C 59 % 85 % 0 % 1008,2 hPa 0,0 l/m 4,6 km/h (1 Bft) 0 min 13,5 km/h (3 Bft)
18.07.2009 08:58 21,4 C 15,5 C 1,1 UV-I 0,0 C 59 % 85 % 0 % 1008,3 hPa 0,0 l/m 5,3 km/h (1 Bft) 0 min 4,1 km/h (1 Bft)
18.07.2009 09:00 21,5 C 15,4 C 1,1 UV-I 0,0 C 59 % 85 % 0 % 1008,3 hPa 0,0 l/m 5,1 km/h (1 Bft) 0 min 0,0 km/h (0 Bft)
18.07.2009 09:02 21,5 C 15,5 C 1,0 UV-I 0,0 C 59 % 84 % 0 % 1008,3 hPa 0,0 l/m 4,3 km/h (1 Bft) 0 min 7,5 km/h (2 Bft)
18.07.2009 09:04 21,5 C 15,5 C 1,0 UV-I 0,0 C 59 % 84 % 0 % 1008,3 hPa 0,0 l/m 4,8 km/h (1 Bft) 0 min 16,1 km/h (3 Bft)
18.07.2009 09:08 21,5 C 15,6 C 0,5 UV-I 0,0 C 59 % 84 % 0 % 1008,3 hPa 0,0 l/m 4,3 km/h (1 Bft) 0 min 6,0 km/h (2 Bft)
18.07.2009 09:10 21,5 C 15,6 C 0,5 UV-I 0,0 C 59 % 84 % 0 % 1008,3 hPa 0,0 l/m 4,3 km/h (1 Bft) 0 min 5,5 km/h (1 Bft)
18.07.2009 09:12 21,5 C 15,6 C 0,5 UV-I 0,0 C 59 % 84 % 0 % 1008,3 hPa 0,0 l/m 4,1 km/h (1 Bft) 0 min 2,6 km/h (1 Bft)
18.07.2009 09:14 21,5 C 15,7 C 0,8 UV-I 0,0 C 59 % 83 % 0 % 1008,3 hPa 0,0 l/m 5,1 km/h (1 Bft) 0 min 8,7 km/h (2 Bft)
18.07.2009 09:16 21,5 C 15,7 C 0,8 UV-I 0,0 C 58 % 83 % 0 % 1008,3 hPa 0,0 l/m 4,6 km/h (1 Bft) 0 min 6,3 km/h (2 Bft)
18.07.2009 09:18 21,5 C 15,6 C 0,8 UV-I 0,0 C 58 % 83 % 0 % 1008,5 hPa 0,0 l/m 4,1 km/h (1 Bft) 0 min 0,0 km/h (0 Bft)
18.07.2009 09:20 21,5 C 15,7 C 0,8 UV-I 0,0 C 59 % 83 % 0 % 1008,5 hPa 0,0 l/m 4,1 km/h (1 Bft) 0 min 12,0 km/h (2 Bft)
18.07.2009 09:22 21,5 C 15,6 C 0,9 UV-I 0,0 C 58 % 83 % 0 % 1008,5 hPa 0,0 l/m 3,8 km/h (1 Bft) 0 min 4,1 km/h (1 Bft)
18.07.2009 09:24 21,6 C 15,6 C 0,9 UV-I 0,0 C 59 % 83 % 0 % 1008,5 hPa 0,0 l/m 3,8 km/h (1 Bft) 0 min 4,1 km/h (1 Bft)
18.07.2009 09:26 21,5 C 15,6 C 1,1 UV-I 0,0 C 58 % 83 % 0 % 1008,5 hPa 0,0 l/m 3,6 km/h (1 Bft) 0 min 11,5 km/h (2 Bft)
18.07.2009 09:28 21,5 C 15,7 C 1,1 UV-I 0,0 C 58 % 83 % 0 % 1008,5 hPa 0,0 l/m 3,6 km/h (1 Bft) 0 min 12,8 km/h (3 Bft)
18.07.2009 09:30 21,6 C 15,7 C 1,1 UV-I 0,0 C 58 % 83 % 0 % 1008,5 hPa 0,0 l/m 3,8 km/h (1 Bft) 0 min 0,0 km/h (0 Bft)
18.07.2009 09:32 21,6 C 15,9 C 1,7 UV-I 0,0 C 58 % 83 % 0 % 1008,5 hPa 0,0 l/m 3,6 km/h (1 Bft) 0 min 4,6 km/h (1 Bft)
18.07.2009 09:34 21,6 C 15,9 C 1,7 UV-I 0,0 C 58 % 83 % 0 % 1008,5 hPa 0,0 l/m 4,1 km/h (1 Bft) 0 min 6,5 km/h (2 Bft)
18.07.2009 09:38 21,6 C 15,9 C 0,8 UV-I 0,0 C 58 % 83 % 0 % 1008,3 hPa 0,0 l/m 3,1 km/h (1 Bft) 0 min 3,8 km/h (1 Bft)
18.07.2009 09:40 21,6 C 15,9 C 0,8 UV-I 0,0 C 58 % 82 % 0 % 1008,3 hPa 0,0 l/m 3,4 km/h (1 Bft) 0 min 4,3 km/h (1 Bft)
18.07.2009 09:42 21,6 C 15,9 C 0,8 UV-I 0,0 C 58 % 82 % 0 % 1008,3 hPa 0,0 l/m 3,8 km/h (1 Bft) 0 min 8,4 km/h (2 Bft)
18.07.2009 09:44 21,6 C 16,0 C 1,5 UV-I 0,0 C 58 % 81 % 0 % 1008,3 hPa 0,0 l/m 4,1 km/h (1 Bft) 0 min 5,5 km/h (1 Bft)
18.07.2009 09:48 21,6 C 16,1 C 1,4 UV-I 0,0 C 58 % 81 % 0 % 1008,3 hPa 0,0 l/m 4,6 km/h (1 Bft) 0 min 8,4 km/h (2 Bft)
18.07.2009 09:50 21,7 C 16,0 C 1,4 UV-I 0,0 C 58 % 81 % 0 % 1008,3 hPa 0,0 l/m 4,6 km/h (1 Bft) 0 min 7,9 km/h (2 Bft)
18.07.2009 09:52 21,7 C 16,0 C 1,4 UV-I 0,0 C 58 % 81 % 0 % 1008,3 hPa 0,0 l/m 4,6 km/h (1 Bft) 0 min 11,5 km/h (2 Bft)
18.07.2009 09:54 21,7 C 16,1 C 1,4 UV-I 0,0 C 58 % 81 % 0 % 1008,3 hPa 0,0 l/m 4,8 km/h (1 Bft) 0 min 8,2 km/h (2 Bft)
18.07.2009 09:56 21,7 C 16,1 C 1,4 UV-I 0,0 C 58 % 81 % 0 % 1008,3 hPa 0,0 l/m 4,8 km/h (1 Bft) 0 min 5,5 km/h (1 Bft)
18.07.2009 09:58 21,7 C 16,2 C 1,4 UV-I 0,0 C 58 % 80 % 0 % 1008,5 hPa 0,0 l/m 5,1 km/h (1 Bft) 0 min 9,6 km/h (2 Bft)
18.07.2009 10:00 21,7 C 16,2 C 1,4 UV-I 0,3 C 58 % 80 % 9 % 1008,5 hPa 0,0 l/m 5,1 km/h (1 Bft) 0 min 7,7 km/h (2 Bft)
18.07.2009 10:02 21,7 C 16,2 C 3,2 UV-I 0,6 C 57 % 80 % 17 % 1008,5 hPa 0,0 l/m 4,8 km/h (1 Bft) 0 min 7,7 km/h (2 Bft)
18.07.2009 10:04 21,7 C 16,3 C 3,2 UV-I 0,7 C 57 % 80 % 20 % 1008,5 hPa 0,0 l/m 4,3 km/h (1 Bft) 0 min 4,8 km/h (1 Bft)
18.07.2009 10:06 21,7 C 16,4 C 3,2 UV-I 0,6 C 57 % 79 % 17 % 1008,5 hPa 0,0 l/m 4,3 km/h (1 Bft) 0 min 4,8 km/h (1 Bft)
18.07.2009 10:08 21,7 C 16,4 C 3,2 UV-I 0,8 C 57 % 79 % 23 % 1008,5 hPa 0,0 l/m 4,1 km/h (1 Bft) 0 min 7,2 km/h (2 Bft)
18.07.2009 10:10 21,7 C 16,5 C 3,2 UV-I 0,8 C 57 % 79 % 23 % 1008,5 hPa 0,0 l/m 4,6 km/h (1 Bft) 0 min 3,1 km/h (1 Bft)
18.07.2009 10:12 21,7 C 16,5 C 2,1 UV-I 0,8 C 57 % 79 % 23 % 1008,5 hPa 0,0 l/m 5,1 km/h (1 Bft) 0 min 14,7 km/h (3 Bft)
18.07.2009 10:14 21,7 C 16,5 C 2,1 UV-I 0,6 C 57 % 78 % 17 % 1008,5 hPa 0,0 l/m 5,5 km/h (1 Bft) 0 min 7,7 km/h (2 Bft)
18.07.2009 10:18 21,7 C 16,7 C 2,6 UV-I 0,5 C 57 % 77 % 14 % 1008,6 hPa 0,0 l/m 5,8 km/h (2 Bft) 0 min 7,7 km/h (2 Bft)
18.07.2009 10:20 21,7 C 16,7 C 2,6 UV-I 0,7 C 57 % 77 % 20 % 1008,6 hPa 0,0 l/m 6,3 km/h (2 Bft) 0 min 14,0 km/h (3 Bft)
18.07.2009 10:22 21,7 C 16,8 C 2,3 UV-I 0,6 C 57 % 78 % 17 % 1008,6 hPa 0,0 l/m 6,3 km/h (2 Bft) 0 min 8,7 km/h (2 Bft)
18.07.2009 10:24 21,7 C 16,8 C 2,3 UV-I 0,5 C 57 % 78 % 14 % 1008,6 hPa 0,0 l/m 5,8 km/h (2 Bft) 0 min 21,9 km/h (4 Bft)
18.07.2009 10:26 21,7 C 16,9 C 6,5 UV-I 1,0 C 57 % 78 % 29 % 1008,6 hPa 0,0 l/m 5,8 km/h (2 Bft) 0 min 9,6 km/h (2 Bft)
18.07.2009 10:32 21,8 C 17,1 C 3,3 UV-I 1,6 C 57 % 77 % 46 % 1008,6 hPa 0,0 l/m 3,4 km/h (1 Bft) 0 min 5,8 km/h (2 Bft)
18.07.2009 10:34 21,8 C 17,2 C 3,3 UV-I 1,5 C 57 % 76 % 43 % 1008,6 hPa 0,0 l/m 3,4 km/h (1 Bft) 0 min 5,8 km/h (2 Bft)
18.07.2009 10:36 21,8 C 17,3 C 2,9 UV-I 1,5 C 57 % 75 % 43 % 1008,6 hPa 0,0 l/m 3,8 km/h (1 Bft) 0 min 14,7 km/h (3 Bft)
18.07.2009 10:38 21,8 C 17,3 C 2,9 UV-I 1,6 C 57 % 75 % 46 % 1008,8 hPa 0,0 l/m 3,8 km/h (1 Bft) 0 min 16,6 km/h (3 Bft)
18.07.2009 10:40 21,8 C 17,3 C 2,9 UV-I 1,4 C 57 % 74 % 40 % 1008,8 hPa 0,0 l/m 4,6 km/h (1 Bft) 0 min 4,8 km/h (1 Bft)
18.07.2009 10:44 21,8 C 17,2 C 1,1 UV-I 1,1 C 57 % 73 % 31 % 1008,8 hPa 0,0 l/m 6,3 km/h (2 Bft) 0 min 15,9 km/h (3 Bft)
18.07.2009 10:46 21,8 C 17,3 C 0,8 UV-I 0,3 C 56 % 73 % 9 % 1008,8 hPa 0,0 l/m 8,2 km/h (2 Bft) 0 min 13,5 km/h (3 Bft)
18.07.2009 10:48 21,8 C 17,3 C 0,8 UV-I 0,3 C 56 % 73 % 9 % 1008,8 hPa 0,0 l/m 8,2 km/h (2 Bft) 0 min 10,8 km/h (2 Bft)
18.07.2009 10:50 21,8 C 17,2 C 0,8 UV-I 0,3 C 56 % 73 % 9 % 1008,8 hPa 0,0 l/m 7,7 km/h (2 Bft) 0 min 13,2 km/h (3 Bft)
18.07.2009 10:52 21,8 C 17,3 C 0,8 UV-I 0,1 C 56 % 73 % 3 % 1008,8 hPa 0,0 l/m 7,2 km/h (2 Bft) 0 min 4,8 km/h (1 Bft)
18.07.2009 10:54 21,8 C 17,3 C 0,8 UV-I 0,0 C 56 % 74 % 0 % 1008,8 hPa 0,0 l/m 6,5 km/h (2 Bft) 0 min 12,0 km/h (2 Bft)
18.07.2009 10:56 21,8 C 17,2 C 1,2 UV-I 0,1 C 56 % 73 % 3 % 1008,8 hPa 0,0 l/m 6,0 km/h (2 Bft) 0 min 12,0 km/h (2 Bft)
18.07.2009 10:58 21,8 C 17,2 C 1,2 UV-I 0,1 C 56 % 73 % 3 % 1008,8 hPa 0,0 l/m 6,3 km/h (2 Bft) 0 min 12,3 km/h (3 Bft)
18.07.2009 11:00 21,8 C 17,2 C 1,2 UV-I 0,1 C 56 % 73 % 3 % 1008,8 hPa 0,0 l/m 6,3 km/h (2 Bft) 0 min 12,3 km/h (3 Bft)
18.07.2009 11:02 21,8 C 17,3 C 0,4 UV-I 0,0 C 56 % 73 % 0 % 1008,8 hPa 0,0 l/m 6,5 km/h (2 Bft) 0 min 21,4 km/h (4 Bft)
18.07.2009 11:04 21,8 C 17,3 C 0,4 UV-I 0,0 C 56 % 73 % 0 % 1008,8 hPa 0,0 l/m 6,7 km/h (2 Bft) 0 min 3,6 km/h (1 Bft)
18.07.2009 11:06 21,8 C 17,3 C 0,6 UV-I 0,0 C 56 % 73 % 0 % 1008,8 hPa 0,0 l/m 6,5 km/h (2 Bft) 0 min 2,9 km/h (1 Bft)
18.07.2009 11:08 21,8 C 17,2 C 0,6 UV-I 0,0 C 56 % 73 % 0 % 1008,8 hPa 0,0 l/m 6,3 km/h (2 Bft) 0 min 15,6 km/h (3 Bft)
18.07.2009 11:10 21,8 C 17,3 C 0,6 UV-I 0,0 C 56 % 73 % 0 % 1008,8 hPa 0,0 l/m 6,0 km/h (2 Bft) 0 min 15,6 km/h (3 Bft)
18.07.2009 11:12 21,8 C 17,3 C 1,8 UV-I 0,0 C 56 % 73 % 0 % 1008,8 hPa 0,0 l/m 5,1 km/h (1 Bft) 0 min 13,5 km/h (3 Bft)
18.07.2009 11:14 21,8 C 17,2 C 1,8 UV-I 0,1 C 56 % 73 % 3 % 1008,8 hPa 0,0 l/m 5,3 km/h (1 Bft) 0 min 4,1 km/h (1 Bft)
18.07.2009 11:16 21,8 C 17,3 C 1,1 UV-I 0,0 C 56 % 73 % 0 % 1008,8 hPa 0,0 l/m 5,3 km/h (1 Bft) 0 min 4,1 km/h (1 Bft)
18.07.2009 11:18 21,8 C 17,2 C 1,1 UV-I 0,2 C 56 % 73 % 6 % 1009,1 hPa 0,0 l/m 5,3 km/h (1 Bft) 0 min 7,0 km/h (2 Bft)
18.07.2009 11:20 21,8 C 17,3 C 1,1 UV-I 0,1 C 55 % 72 % 3 % 1009,1 hPa 0,0 l/m 5,1 km/h (1 Bft) 0 min 6,0 km/h (2 Bft)
18.07.2009 11:22 21,8 C 17,3 C 0,9 UV-I 0,0 C 55 % 72 % 0 % 1009,1 hPa 0,0 l/m 7,0 km/h (2 Bft) 0 min 24,1 km/h (4 Bft)
18.07.2009 11:24 21,8 C 17,3 C 0,9 UV-I 0,0 C 55 % 71 % 0 % 1009,1 hPa 0,0 l/m 8,4 km/h (2 Bft) 0 min 24,1 km/h (4 Bft)
18.07.2009 11:26 21,8 C 17,2 C 1,1 UV-I 0,0 C 55 % 71 % 0 % 1009,1 hPa 0,0 l/m 8,9 km/h (2 Bft) 0 min 9,4 km/h (2 Bft)
18.07.2009 11:28 21,8 C 17,2 C 1,1 UV-I 0,1 C 55 % 71 % 3 % 1009,1 hPa 0,0 l/m 9,9 km/h (2 Bft) 0 min 11,3 km/h (2 Bft)
18.07.2009 11:30 21,8 C 17,3 C 1,1 UV-I 0,0 C 55 % 71 % 0 % 1009,1 hPa 0,0 l/m 9,9 km/h (2 Bft) 0 min 11,3 km/h (2 Bft)
18.07.2009 11:32 21,8 C 17,3 C 1,7 UV-I 0,0 C 55 % 71 % 0 % 1009,1 hPa 0,0 l/m 9,9 km/h (2 Bft) 0 min 11,3 km/h (2 Bft)
18.07.2009 11:34 21,8 C 17,2 C 1,7 UV-I 0,1 C 55 % 71 % 3 % 1009,1 hPa 0,0 l/m 9,4 km/h (2 Bft) 0 min 28,1 km/h (4 Bft)
18.07.2009 11:36 21,8 C 17,3 C 1,5 UV-I 0,1 C 55 % 71 % 3 % 1009,1 hPa 0,0 l/m 6,7 km/h (2 Bft) 0 min 5,1 km/h (1 Bft)
18.07.2009 11:40 21,8 C 17,3 C 1,5 UV-I 0,2 C 55 % 71 % 6 % 1009,0 hPa 0,0 l/m 6,5 km/h (2 Bft) 0 min 6,5 km/h (2 Bft)
18.07.2009 11:42 21,8 C 17,3 C 1,4 UV-I 0,2 C 55 % 71 % 6 % 1009,0 hPa 0,0 l/m 6,0 km/h (2 Bft) 0 min 8,9 km/h (2 Bft)
18.07.2009 11:46 21,8 C 17,4 C 2,4 UV-I 0,2 C 55 % 71 % 6 % 1009,0 hPa 0,0 l/m 6,5 km/h (2 Bft) 0 min 11,8 km/h (2 Bft)
18.07.2009 11:50 21,8 C 17,5 C 2,4 UV-I 0,3 C 55 % 71 % 9 % 1009,0 hPa 0,0 l/m 7,0 km/h (2 Bft) 0 min 15,4 km/h (3 Bft)
18.07.2009 11:52 21,8 C 17,5 C 3,5 UV-I 0,6 C 55 % 70 % 17 % 1009,0 hPa 0,0 l/m 6,5 km/h (2 Bft) 0 min 5,5 km/h (1 Bft)
18.07.2009 11:54 21,8 C 17,6 C 3,5 UV-I 0,8 C 55 % 70 % 23 % 1009,0 hPa 0,0 l/m 6,7 km/h (2 Bft) 0 min 7,9 km/h (2 Bft)
18.07.2009 11:56 21,8 C 17,6 C 3,5 UV-I 1,4 C 55 % 70 % 40 % 1009,0 hPa 0,0 l/m 7,0 km/h (2 Bft) 0 min 10,8 km/h (2 Bft)
18.07.2009 11:58 21,8 C 17,6 C 3,5 UV-I 1,4 C 55 % 70 % 40 % 1008,8 hPa 0,0 l/m 7,0 km/h (2 Bft) 0 min 10,1 km/h (2 Bft)
18.07.2009 12:04 21,8 C 17,7 C 3,5 UV-I 1,2 C 55 % 70 % 34 % 1008,8 hPa 0,0 l/m 7,5 km/h (2 Bft) 0 min 11,5 km/h (2 Bft)
18.07.2009 12:06 21,8 C 17,7 C 3,5 UV-I 1,2 C 55 % 70 % 34 % 1008,8 hPa 0,0 l/m 7,5 km/h (2 Bft) 0 min 11,5 km/h (2 Bft)
18.07.2009 12:08 21,8 C 17,7 C 3,5 UV-I 1,2 C 55 % 70 % 34 % 1008,8 hPa 0,0 l/m 7,5 km/h (2 Bft) 0 min 11,5 km/h (2 Bft)
18.07.2009 12:10 21,8 C 17,7 C 3,5 UV-I 0,7 C 55 % 70 % 20 % 1008,8 hPa 0,0 l/m 7,2 km/h (2 Bft) 0 min 9,4 km/h (2 Bft)
18.07.2009 12:12 21,8 C 17,8 C 3,5 UV-I 0,6 C 55 % 70 % 17 % 1008,8 hPa 0,0 l/m 7,2 km/h (2 Bft) 0 min 8,9 km/h (2 Bft)
18.07.2009 12:14 21,8 C 17,9 C 3,3 UV-I 0,8 C 55 % 70 % 23 % 1008,8 hPa 0,0 l/m 6,5 km/h (2 Bft) 0 min 5,5 km/h (1 Bft)
18.07.2009 12:16 21,8 C 18,0 C 6,5 UV-I 1,3 C 55 % 71 % 37 % 1008,8 hPa 0,0 l/m 6,3 km/h (2 Bft) 0 min 8,2 km/h (2 Bft)
18.07.2009 12:20 21,9 C 18,2 C 6,5 UV-I 2,4 C 55 % 70 % 69 % 1008,9 hPa 0,0 l/m 7,0 km/h (2 Bft) 0 min 23,1 km/h (4 Bft)
18.07.2009 12:22 21,9 C 18,3 C 3,2 UV-I 2,3 C 55 % 69 % 66 % 1008,9 hPa 0,0 l/m 7,5 km/h (2 Bft) 0 min 16,8 km/h (3 Bft)
18.07.2009 12:26 21,9 C 18,5 C 6,5 UV-I 2,1 C 55 % 68 % 60 % 1008,9 hPa 0,0 l/m 9,6 km/h (2 Bft) 0 min 15,2 km/h (3 Bft)
18.07.2009 12:28 21,9 C 18,7 C 6,5 UV-I 2,9 C 55 % 67 % 83 % 1008,9 hPa 0,0 l/m 9,4 km/h (2 Bft) 2 min 15,2 km/h (3 Bft)
18.07.2009 12:30 21,9 C 18,7 C 6,5 UV-I 3,8 C 55 % 68 % 100 % 1008,9 hPa 0,0 l/m 9,4 km/h (2 Bft) 2 min 19,0 km/h (3 Bft)
18.07.2009 12:36 22,0 C 19,1 C 7,2 UV-I 3,9 C 55 % 66 % 100 % 1008,9 hPa 0,0 l/m 8,9 km/h (2 Bft) 2 min 11,5 km/h (2 Bft)
18.07.2009 12:38 22,0 C 19,1 C 6,4 UV-I 3,6 C 55 % 66 % 100 % 1008,9 hPa 0,0 l/m 8,4 km/h (2 Bft) 2 min 10,6 km/h (2 Bft)
18.07.2009 12:40 22,0 C 19,1 C 6,4 UV-I 3,6 C 55 % 65 % 100 % 1008,9 hPa 0,0 l/m 8,4 km/h (2 Bft) 2 min 10,6 km/h (2 Bft)
18.07.2009 12:44 22,0 C 19,2 C 6,4 UV-I 3,3 C 55 % 64 % 94 % 1008,9 hPa 0,0 l/m 8,7 km/h (2 Bft) 2 min 18,3 km/h (3 Bft)
18.07.2009 12:48 22,0 C 19,3 C 5,1 UV-I 2,9 C 54 % 63 % 83 % 1008,9 hPa 0,0 l/m 8,9 km/h (2 Bft) 2 min 24,8 km/h (4 Bft)
18.07.2009 12:52 22,1 C 19,5 C 5,1 UV-I 2,6 C 54 % 63 % 74 % 1008,9 hPa 0,0 l/m 8,7 km/h (2 Bft) 0 min 9,4 km/h (2 Bft)
18.07.2009 12:54 22,0 C 19,5 C 5,1 UV-I 2,9 C 54 % 63 % 83 % 1008,9 hPa 0,0 l/m 9,6 km/h (2 Bft) 2 min 20,5 km/h (4 Bft)
18.07.2009 12:56 22,1 C 19,5 C 6,1 UV-I 2,9 C 54 % 62 % 83 % 1008,9 hPa 0,0 l/m 9,9 km/h (2 Bft) 2 min 12,0 km/h (2 Bft)
18.07.2009 13:00 22,1 C 19,5 C 6,1 UV-I 2,1 C 54 % 63 % 60 % 1009,1 hPa 0,0 l/m 8,7 km/h (2 Bft) 0 min 12,0 km/h (2 Bft)
18.07.2009 13:02 22,1 C 19,5 C 6,1 UV-I 2,1 C 54 % 63 % 60 % 1009,1 hPa 0,0 l/m 8,7 km/h (2 Bft) 0 min 9,6 km/h (2 Bft)
18.07.2009 13:04 22,1 C 19,5 C 1,4 UV-I 1,5 C 54 % 63 % 43 % 1009,1 hPa 0,0 l/m 8,4 km/h (2 Bft) 0 min 5,8 km/h (2 Bft)
18.07.2009 13:06 22,2 C 19,4 C 2,8 UV-I 0,9 C 54 % 63 % 26 % 1009,1 hPa 0,0 l/m 7,9 km/h (2 Bft) 0 min 29,6 km/h (5 Bft)
18.07.2009 13:08 22,2 C 19,3 C 2,8 UV-I 1,0 C 54 % 63 % 29 % 1009,1 hPa 0,0 l/m 7,9 km/h (2 Bft) 0 min 29,6 km/h (5 Bft)
18.07.2009 13:10 22,2 C 19,5 C 2,8 UV-I 0,7 C 54 % 63 % 20 % 1009,1 hPa 0,0 l/m 8,2 km/h (2 Bft) 0 min 8,2 km/h (2 Bft)
18.07.2009 13:12 22,2 C 19,4 C 5,1 UV-I 0,9 C 54 % 62 % 26 % 1009,1 hPa 0,0 l/m 7,9 km/h (2 Bft) 0 min 10,8 km/h (2 Bft)
18.07.2009 13:14 22,2 C 19,5 C 5,1 UV-I 1,7 C 54 % 63 % 49 % 1009,1 hPa 0,0 l/m 7,5 km/h (2 Bft) 0 min 9,9 km/h (2 Bft)
18.07.2009 13:16 22,2 C 19,5 C 5,1 UV-I 1,7 C 54 % 62 % 49 % 1009,1 hPa 0,0 l/m 7,5 km/h (2 Bft) 0 min 29,6 km/h (5 Bft)
18.07.2009 13:18 22,2 C 19,5 C 2,8 UV-I 1,6 C 53 % 63 % 46 % 1009,6 hPa 0,0 l/m 7,7 km/h (2 Bft) 0 min 5,5 km/h (1 Bft)
18.07.2009 13:20 22,2 C 19,5 C 2,8 UV-I 1,3 C 53 % 62 % 37 % 1009,6 hPa 0,0 l/m 6,0 km/h (2 Bft) 0 min 9,1 km/h (2 Bft)
18.07.2009 13:24 22,3 C 19,4 C 1,5 UV-I 0,8 C 53 % 61 % 23 % 1009,6 hPa 0,0 l/m 6,3 km/h (2 Bft) 0 min 12,8 km/h (3 Bft)
18.07.2009 13:26 22,3 C 19,4 C 3,6 UV-I 0,9 C 53 % 61 % 26 % 1009,6 hPa 0,0 l/m 6,7 km/h (2 Bft) 0 min 23,6 km/h (4 Bft)
18.07.2009 13:28 22,3 C 19,4 C 3,6 UV-I 0,8 C 53 % 61 % 23 % 1009,6 hPa 0,0 l/m 7,7 km/h (2 Bft) 0 min 8,2 km/h (2 Bft)
18.07.2009 13:30 22,3 C 19,5 C 3,6 UV-I 0,8 C 53 % 61 % 23 % 1009,6 hPa 0,0 l/m 8,4 km/h (2 Bft) 0 min 19,0 km/h (3 Bft)
18.07.2009 13:32 22,3 C 19,4 C 3,6 UV-I 0,9 C 53 % 61 % 26 % 1009,6 hPa 0,0 l/m 8,4 km/h (2 Bft) 0 min 19,0 km/h (3 Bft)
18.07.2009 13:34 22,3 C 19,5 C 3,6 UV-I 0,7 C 53 % 61 % 20 % 1009,6 hPa 0,0 l/m 8,2 km/h (2 Bft) 0 min 7,5 km/h (2 Bft)
18.07.2009 13:36 22,2 C 19,5 C 3,4 UV-I 0,9 C 53 % 61 % 26 % 1009,6 hPa 0,0 l/m 9,1 km/h (2 Bft) 0 min 18,5 km/h (3 Bft)
18.07.2009 13:38 22,2 C 19,5 C 3,4 UV-I 0,9 C 53 % 61 % 26 % 1010,0 hPa 0,0 l/m 8,9 km/h (2 Bft) 0 min 12,5 km/h (3 Bft)
18.07.2009 13:40 22,2 C 19,5 C 3,4 UV-I 0,6 C 53 % 61 % 17 % 1010,0 hPa 0,0 l/m 7,5 km/h (2 Bft) 0 min 4,3 km/h (1 Bft)
18.07.2009 13:42 22,4 C 19,5 C 1,5 UV-I 0,4 C 53 % 61 % 11 % 1010,0 hPa 0,0 l/m 6,7 km/h (2 Bft) 0 min 10,8 km/h (2 Bft)
18.07.2009 13:48 22,4 C 19,4 C 0,6 UV-I 0,1 C 53 % 61 % 3 % 1010,0 hPa 0,0 l/m 4,8 km/h (1 Bft) 0 min 4,8 km/h (1 Bft)
18.07.2009 13:50 22,4 C 19,3 C 0,6 UV-I 0,0 C 53 % 62 % 0 % 1010,0 hPa 0,0 l/m 5,1 km/h (1 Bft) 0 min 5,1 km/h (1 Bft)
18.07.2009 13:54 22,4 C 19,3 C 1,1 UV-I 0,0 C 53 % 62 % 0 % 1010,0 hPa 0,0 l/m 4,8 km/h (1 Bft) 0 min 3,6 km/h (1 Bft)
18.07.2009 13:56 22,4 C 19,2 C 2,7 UV-I 0,0 C 53 % 62 % 0 % 1010,0 hPa 0,0 l/m 5,3 km/h (1 Bft) 0 min 14,2 km/h (3 Bft)
18.07.2009 13:58 22,4 C 19,3 C 2,7 UV-I 0,0 C 52 % 62 % 0 % 1010,3 hPa 0,0 l/m 4,8 km/h (1 Bft) 0 min 3,4 km/h (1 Bft)
18.07.2009 14:00 22,4 C 19,3 C 2,7 UV-I 0,0 C 52 % 60 % 0 % 1010,3 hPa 0,0 l/m 4,8 km/h (1 Bft) 0 min 3,4 km/h (1 Bft)
18.07.2009 14:02 22,4 C 19,2 C 2,2 UV-I 0,2 C 52 % 61 % 6 % 1010,3 hPa 0,0 l/m 5,8 km/h (2 Bft) 0 min 22,1 km/h (4 Bft)
18.07.2009 14:08 22,4 C 19,2 C 0,9 UV-I 0,0 C 52 % 61 % 0 % 1010,3 hPa 0,0 l/m 6,5 km/h (2 Bft) 0 min 8,7 km/h (2 Bft)
18.07.2009 14:12 22,4 C 19,2 C 1,3 UV-I 0,0 C 52 % 62 % 0 % 1010,3 hPa 0,0 l/m 5,3 km/h (1 Bft) 0 min 8,7 km/h (2 Bft)
18.07.2009 14:14 22,4 C 19,1 C 1,3 UV-I 0,0 C 52 % 62 % 0 % 1010,3 hPa 0,0 l/m 5,3 km/h (1 Bft) 0 min 6,7 km/h (2 Bft)
18.07.2009 14:16 22,4 C 19,1 C 1,0 UV-I 0,0 C 52 % 61 % 0 % 1010,3 hPa 0,0 l/m 5,1 km/h (1 Bft) 0 min 17,3 km/h (3 Bft)
18.07.2009 14:18 22,4 C 19,0 C 1,0 UV-I 0,0 C 52 % 61 % 0 % 1010,5 hPa 0,0 l/m 4,8 km/h (1 Bft) 0 min 20,5 km/h (4 Bft)
18.07.2009 14:20 22,4 C 19,0 C 1,0 UV-I 0,0 C 52 % 61 % 0 % 1010,5 hPa 0,0 l/m 5,8 km/h (2 Bft) 0 min 14,9 km/h (3 Bft)
18.07.2009 14:24 22,4 C 19,1 C 1,1 UV-I 0,0 C 52 % 61 % 0 % 1010,5 hPa 0,0 l/m 6,7 km/h (2 Bft) 0 min 14,2 km/h (3 Bft)
18.07.2009 14:28 22,4 C 19,0 C 1,2 UV-I 0,0 C 52 % 62 % 0 % 1010,5 hPa 0,0 l/m 6,0 km/h (2 Bft) 0 min 4,1 km/h (1 Bft)
18.07.2009 14:30 22,4 C 18,9 C 1,2 UV-I 0,0 C 52 % 61 % 0 % 1010,5 hPa 0,0 l/m 5,1 km/h (1 Bft) 0 min 8,2 km/h (2 Bft)
18.07.2009 14:34 22,4 C 18,9 C 0,6 UV-I 0,0 C 52 % 61 % 0 % 1010,5 hPa 0,0 l/m 4,8 km/h (1 Bft) 0 min 0,0 km/h (0 Bft)
18.07.2009 14:38 22,4 C 18,8 C 0,5 UV-I 0,0 C 52 % 62 % 0 % 1010,6 hPa 0,0 l/m 4,3 km/h (1 Bft) 0 min 0,0 km/h (0 Bft)
18.07.2009 14:40 22,4 C 18,8 C 0,5 UV-I 0,0 C 52 % 63 % 0 % 1010,6 hPa 0,0 l/m 4,3 km/h (1 Bft) 0 min 4,6 km/h (1 Bft)
18.07.2009 14:42 22,4 C 18,8 C 0,4 UV-I 0,0 C 52 % 64 % 0 % 1010,6 hPa 0,0 l/m 4,3 km/h (1 Bft) 0 min 5,8 km/h (2 Bft)
18.07.2009 14:44 22,4 C 18,7 C 0,4 UV-I 0,0 C 52 % 65 % 0 % 1010,6 hPa 0,0 l/m 4,3 km/h (1 Bft) 0 min 7,7 km/h (2 Bft)
18.07.2009 14:46 22,4 C 18,6 C 0,4 UV-I 0,0 C 52 % 65 % 0 % 1010,6 hPa 0,0 l/m 3,4 km/h (1 Bft) 0 min 0,0 km/h (0 Bft)
18.07.2009 14:50 22,4 C 18,7 C 0,4 UV-I 0,0 C 52 % 66 % 0 % 1010,6 hPa 0,0 l/m 2,4 km/h (1 Bft) 0 min 0,0 km/h (0 Bft)
18.07.2009 14:52 22,4 C 18,5 C 0,6 UV-I 0,0 C 52 % 66 % 0 % 1010,6 hPa 0,0 l/m 1,4 km/h (1 Bft) 0 min 0,0 km/h (0 Bft)
18.07.2009 14:56 22,4 C 18,4 C 0,6 UV-I 0,0 C 52 % 66 % 0 % 1010,6 hPa 0,0 l/m 1,7 km/h (1 Bft) 0 min 4,3 km/h (1 Bft)
18.07.2009 14:58 22,4 C 18,4 C 0,2 UV-I 0,0 C 53 % 67 % 0 % 1010,9 hPa 0,0 l/m 1,9 km/h (1 Bft) 0 min 0,0 km/h (0 Bft)
18.07.2009 15:00 22,4 C 18,4 C 0,2 UV-I 0,0 C 53 % 67 % 0 % 1010,9 hPa 0,0 l/m 1,9 km/h (1 Bft) 0 min 6,7 km/h (2 Bft)
18.07.2009 15:02 22,2 C 18,4 C 0,8 UV-I 0,0 C 53 % 66 % 0 % 1010,9 hPa 0,0 l/m 1,9 km/h (1 Bft) 0 min 6,7 km/h (2 Bft)
18.07.2009 15:04 22,2 C 18,3 C 0,8 UV-I 0,0 C 53 % 66 % 0 % 1010,9 hPa 0,0 l/m 1,9 km/h (1 Bft) 0 min 4,8 km/h (1 Bft)
18.07.2009 15:14 22,2 C 18,3 C 1,1 UV-I 0,0 C 53 % 66 % 0 % 1010,9 hPa 0,0 l/m 1,4 km/h (1 Bft) 0 min 4,8 km/h (1 Bft)
18.07.2009 15:18 22,2 C 18,4 C 2,1 UV-I 0,0 C 53 % 65 % 0 % 1010,6 hPa 0,0 l/m 1,4 km/h (1 Bft) 0 min 6,5 km/h (2 Bft)
18.07.2009 15:22 22,2 C 18,5 C 2,6 UV-I 0,2 C 53 % 65 % 6 % 1010,6 hPa 0,0 l/m 2,6 km/h (1 Bft) 0 min 6,7 km/h (2 Bft)
18.07.2009 15:24 22,2 C 18,6 C 2,6 UV-I 0,5 C 53 % 65 % 14 % 1010,6 hPa 0,0 l/m 3,4 km/h (1 Bft) 0 min 4,1 km/h (1 Bft)
18.07.2009 15:26 22,4 C 18,7 C 2,0 UV-I 0,6 C 53 % 65 % 17 % 1010,6 hPa 0,0 l/m 3,4 km/h (1 Bft) 0 min 4,1 km/h (1 Bft)
18.07.2009 15:28 22,2 C 18,7 C 2,0 UV-I 0,6 C 53 % 64 % 17 % 1010,6 hPa 0,0 l/m 3,6 km/h (1 Bft) 0 min 9,4 km/h (2 Bft)
18.07.2009 15:30 22,2 C 18,7 C 2,0 UV-I 0,6 C 53 % 64 % 17 % 1010,6 hPa 0,0 l/m 3,6 km/h (1 Bft) 0 min 9,4 km/h (2 Bft)
18.07.2009 15:42 22,4 C 18,6 C 1,2 UV-I 0,4 C 52 % 63 % 11 % 1010,6 hPa 0,0 l/m 3,8 km/h (1 Bft) 0 min 13,7 km/h (3 Bft)
18.07.2009 15:46 22,2 C 18,7 C 1,2 UV-I 0,3 C 52 % 63 % 9 % 1010,6 hPa 0,0 l/m 3,8 km/h (1 Bft) 0 min 4,3 km/h (1 Bft)
18.07.2009 15:48 22,4 C 18,6 C 0,8 UV-I 0,4 C 52 % 63 % 11 % 1010,6 hPa 0,0 l/m 3,1 km/h (1 Bft) 0 min 7,9 km/h (2 Bft)
18.07.2009 15:49 22,4 C 18,6 C 0,8 UV-I 0,3 C 52 % 63 % 9 % 1010,6 hPa 0,0 l/m 3,1 km/h (1 Bft) 0 min 6,7 km/h (2 Bft)
18.07.2009 15:54 22,4 C 18,7 C 0,7 UV-I 0,0 C 52 % 63 % 0 % 1010,6 hPa 0,0 l/m 4,3 km/h (1 Bft) 0 min 7,2 km/h (2 Bft)
18.07.2009 15:59 22,3 C 18,7 C 0,6 UV-I 0,0 C 52 % 63 % 0 % 1010,9 hPa 0,0 l/m 4,6 km/h (1 Bft) 0 min 10,1 km/h (2 Bft)
18.07.2009 16:04 22,3 C 18,7 C 1,2 UV-I 0,2 C 52 % 62 % 6 % 1010,9 hPa 0,0 l/m 4,1 km/h (1 Bft) 0 min 2,9 km/h (1 Bft)
18.07.2009 16:09 22,3 C 18,8 C 1,7 UV-I 0,5 C 52 % 63 % 14 % 1010,9 hPa 0,0 l/m 3,8 km/h (1 Bft) 0 min 10,3 km/h (2 Bft)
18.07.2009 16:14 22,3 C 18,8 C 1,7 UV-I 0,6 C 52 % 63 % 17 % 1010,9 hPa 0,0 l/m 3,4 km/h (1 Bft) 0 min 3,6 km/h (1 Bft)
18.07.2009 16:19 22,3 C 18,8 C 0,9 UV-I 0,4 C 52 % 63 % 11 % 1011,1 hPa 0,0 l/m 3,6 km/h (1 Bft) 0 min 0,0 km/h (0 Bft)
18.07.2009 16:24 22,3 C 18,8 C 0,6 UV-I 0,1 C 52 % 64 % 3 % 1011,1 hPa 0,0 l/m 2,2 km/h (1 Bft) 0 min 0,0 km/h (0 Bft)
18.07.2009 16:29 22,3 C 18,7 C 0,6 UV-I 0,2 C 52 % 63 % 6 % 1011,1 hPa 0,0 l/m 3,1 km/h (1 Bft) 0 min 9,6 km/h (2 Bft)
18.07.2009 16:34 22,3 C 18,9 C 2,9 UV-I 0,9 C 52 % 64 % 26 % 1011,1 hPa 0,0 l/m 4,3 km/h (1 Bft) 0 min 4,3 km/h (1 Bft)
18.07.2009 16:39 22,2 C 19,1 C 4,1 UV-I 1,7 C 52 % 64 % 49 % 1010,8 hPa 0,0 l/m 3,4 km/h (1 Bft) 0 min 0,0 km/h (0 Bft)
18.07.2009 16:44 22,4 C 19,4 C 4,9 UV-I 2,6 C 53 % 64 % 74 % 1010,8 hPa 0,0 l/m 2,4 km/h (1 Bft) 0 min 2,6 km/h (1 Bft)
18.07.2009 16:49 22,4 C 19,5 C 4,9 UV-I 2,7 C 53 % 63 % 77 % 1010,8 hPa 0,0 l/m 2,9 km/h (1 Bft) 0 min 13,7 km/h (3 Bft)
18.07.2009 16:54 22,4 C 19,6 C 3,6 UV-I 2,5 C 53 % 63 % 71 % 1010,8 hPa 0,0 l/m 4,1 km/h (1 Bft) 0 min 4,1 km/h (1 Bft)
18.07.2009 16:59 22,5 C 19,7 C 3,9 UV-I 2,3 C 53 % 63 % 66 % 1011,1 hPa 0,0 l/m 5,1 km/h (1 Bft) 0 min 5,1 km/h (1 Bft)
18.07.2009 17:04 22,5 C 19,7 C 1,5 UV-I 1,3 C 53 % 62 % 37 % 1011,1 hPa 0,0 l/m 3,6 km/h (1 Bft) 0 min 3,8 km/h (1 Bft)
18.07.2009 17:07 22,6 C 19,7 C 0,8 UV-I 1,0 C 52 % 63 % 29 % 1011,1 hPa 0,0 l/m 3,1 km/h (1 Bft) 0 min 4,6 km/h (1 Bft)
18.07.2009 17:08 22,6 C 19,7 C 0,8 UV-I 1,0 C 52 % 62 % 29 % 1011,1 hPa 0,0 l/m 3,1 km/h (1 Bft) 0 min 4,6 km/h (1 Bft)
18.07.2009 17:10 22,6 C 19,7 C 0,8 UV-I 0,7 C 52 % 62 % 20 % 1011,1 hPa 0,0 l/m 2,9 km/h (1 Bft) 0 min 3,4 km/h (1 Bft)
18.07.2009 17:12 22,6 C 19,7 C 2,1 UV-I 0,6 C 52 % 63 % 17 % 1011,1 hPa 0,0 l/m 2,9 km/h (1 Bft) 0 min 8,2 km/h (2 Bft)
18.07.2009 17:14 22,6 C 19,7 C 2,1 UV-I 0,7 C 52 % 63 % 20 % 1011,1 hPa 0,0 l/m 2,9 km/h (1 Bft) 0 min 4,8 km/h (1 Bft)
18.07.2009 17:16 22,6 C 19,8 C 2,2 UV-I 0,6 C 52 % 63 % 17 % 1011,1 hPa 0,0 l/m 3,1 km/h (1 Bft) 0 min 2,6 km/h (1 Bft)
18.07.2009 17:18 22,7 C 19,9 C 2,2 UV-I 0,5 C 52 % 63 % 14 % 1011,2 hPa 0,0 l/m 3,1 km/h (1 Bft) 0 min 6,3 km/h (2 Bft)
18.07.2009 17:20 22,6 C 19,9 C 2,2 UV-I 0,5 C 52 % 63 % 14 % 1011,2 hPa 0,0 l/m 3,4 km/h (1 Bft) 0 min 4,6 km/h (1 Bft)
18.07.2009 17:22 22,7 C 19,8 C 0,7 UV-I 0,4 C 52 % 63 % 11 % 1011,2 hPa 0,0 l/m 2,9 km/h (1 Bft) 0 min 5,3 km/h (1 Bft)
18.07.2009 17:24 22,7 C 19,9 C 0,7 UV-I 0,0 C 52 % 63 % 0 % 1011,2 hPa 0,0 l/m 2,6 km/h (1 Bft) 0 min 7,2 km/h (2 Bft)
18.07.2009 17:26 22,7 C 19,7 C 0,7 UV-I 0,0 C 52 % 63 % 0 % 1011,2 hPa 0,0 l/m 2,6 km/h (1 Bft) 0 min 0,0 km/h (0 Bft)
18.07.2009 17:28 22,7 C 19,7 C 0,7 UV-I 0,0 C 52 % 63 % 0 % 1011,2 hPa 0,0 l/m 2,4 km/h (1 Bft) 0 min 0,0 km/h (0 Bft)
18.07.2009 17:30 22,8 C 19,7 C 0,7 UV-I 0,0 C 52 % 64 % 0 % 1011,2 hPa 0,0 l/m 1,7 km/h (1 Bft) 0 min 0,0 km/h (0 Bft)
18.07.2009 17:32 22,8 C 19,7 C 0,7 UV-I 0,0 C 52 % 63 % 0 % 1011,2 hPa 0,0 l/m 1,4 km/h (1 Bft) 0 min 4,1 km/h (1 Bft)
18.07.2009 17:34 22,8 C 19,7 C 0,7 UV-I 0,0 C 52 % 63 % 0 % 1011,2 hPa 0,0 l/m 1,4 km/h (1 Bft) 0 min 5,1 km/h (1 Bft)
18.07.2009 17:36 22,8 C 19,6 C 0,8 UV-I 0,0 C 52 % 63 % 0 % 1011,2 hPa 0,0 l/m 1,2 km/h (1 Bft) 0 min 4,1 km/h (1 Bft)
18.07.2009 17:38 22,8 C 19,6 C 0,8 UV-I 0,0 C 52 % 63 % 0 % 1011,4 hPa 0,0 l/m 1,2 km/h (1 Bft) 0 min 0,0 km/h (0 Bft)
18.07.2009 17:40 22,8 C 19,6 C 0,8 UV-I 0,0 C 52 % 63 % 0 % 1011,4 hPa 0,0 l/m 1,2 km/h (1 Bft) 0 min 3,1 km/h (1 Bft)
18.07.2009 17:42 22,8 C 19,6 C 0,5 UV-I 0,0 C 52 % 63 % 0 % 1011,4 hPa 0,0 l/m 1,7 km/h (1 Bft) 0 min 3,4 km/h (1 Bft)
18.07.2009 17:44 22,8 C 19,7 C 0,5 UV-I 0,0 C 52 % 63 % 0 % 1011,4 hPa 0,0 l/m 1,4 km/h (1 Bft) 0 min 0,0 km/h (0 Bft)
18.07.2009 17:46 22,8 C 19,6 C 0,0 UV-I 0,0 C 52 % 63 % 0 % 1011,4 hPa 0,0 l/m 1,7 km/h (1 Bft) 0 min 4,8 km/h (1 Bft)
18.07.2009 17:48 22,8 C 19,5 C 0,0 UV-I 0,0 C 52 % 63 % 0 % 1011,4 hPa 0,0 l/m 1,4 km/h (1 Bft) 0 min 3,1 km/h (1 Bft)
18.07.2009 17:50 22,8 C 19,5 C 0,0 UV-I 0,0 C 52 % 63 % 0 % 1011,4 hPa 0,0 l/m 1,7 km/h (1 Bft) 0 min 0,0 km/h (0 Bft)
18.07.2009 17:52 22,8 C 19,5 C 0,1 UV-I 0,0 C 52 % 63 % 0 % 1011,4 hPa 0,0 l/m 2,4 km/h (1 Bft) 0 min 5,3 km/h (1 Bft)
18.07.2009 17:54 22,8 C 19,4 C 0,1 UV-I 0,0 C 52 % 63 % 0 % 1011,4 hPa 0,0 l/m 2,4 km/h (1 Bft) 0 min 6,5 km/h (2 Bft)
18.07.2009 17:56 22,8 C 19,3 C 0,4 UV-I 0,0 C 52 % 63 % 0 % 1011,4 hPa 0,0 l/m 3,1 km/h (1 Bft) 0 min 5,8 km/h (2 Bft)
18.07.2009 17:58 22,8 C 19,3 C 0,4 UV-I 0,0 C 52 % 64 % 0 % 1011,4 hPa 0,0 l/m 3,1 km/h (1 Bft) 0 min 4,8 km/h (1 Bft)
18.07.2009 18:00 22,8 C 19,3 C 0,4 UV-I 0,0 C 52 % 64 % 0 % 1011,4 hPa 0,0 l/m 3,1 km/h (1 Bft) 0 min 2,4 km/h (1 Bft)
18.07.2009 18:02 22,8 C 19,3 C 1,4 UV-I 0,0 C 52 % 64 % 0 % 1011,4 hPa 0,0 l/m 2,9 km/h (1 Bft) 0 min 5,1 km/h (1 Bft)
18.07.2009 18:04 22,8 C 19,4 C 1,4 UV-I 0,0 C 52 % 64 % 0 % 1011,4 hPa 0,0 l/m 2,9 km/h (1 Bft) 0 min 5,8 km/h (2 Bft)
18.07.2009 18:06 22,8 C 19,4 C 1,4 UV-I 0,0 C 52 % 64 % 0 % 1011,4 hPa 0,0 l/m 2,6 km/h (1 Bft) 0 min 3,8 km/h (1 Bft)
18.07.2009 18:08 22,8 C 19,5 C 2,7 UV-I 0,4 C 52 % 64 % 11 % 1011,4 hPa 0,0 l/m 2,9 km/h (1 Bft) 0 min 7,7 km/h (2 Bft)
18.07.2009 18:10 22,8 C 19,5 C 2,7 UV-I 0,7 C 52 % 64 % 20 % 1011,4 hPa 0,0 l/m 2,6 km/h (1 Bft) 0 min 6,7 km/h (2 Bft)
18.07.2009 18:12 22,8 C 19,6 C 2,0 UV-I 0,7 C 53 % 64 % 20 % 1011,4 hPa 0,0 l/m 3,1 km/h (1 Bft) 0 min 2,9 km/h (1 Bft)
18.07.2009 18:14 22,8 C 19,6 C 2,0 UV-I 1,0 C 53 % 64 % 29 % 1011,4 hPa 0,0 l/m 3,6 km/h (1 Bft) 0 min 5,5 km/h (1 Bft)
18.07.2009 18:16 22,8 C 19,7 C 2,0 UV-I 1,2 C 53 % 64 % 34 % 1011,4 hPa 0,0 l/m 3,6 km/h (1 Bft) 0 min 4,6 km/h (1 Bft)
18.07.2009 18:18 22,8 C 19,7 C 2,2 UV-I 1,3 C 53 % 64 % 37 % 1011,3 hPa 0,0 l/m 4,1 km/h (1 Bft) 0 min 6,0 km/h (2 Bft)
18.07.2009 18:20 22,8 C 19,6 C 2,2 UV-I 1,3 C 53 % 63 % 37 % 1011,3 hPa 0,0 l/m 3,8 km/h (1 Bft) 0 min 5,3 km/h (1 Bft)
18.07.2009 18:22 22,8 C 19,6 C 1,2 UV-I 1,1 C 52 % 63 % 31 % 1011,3 hPa 0,0 l/m 3,4 km/h (1 Bft) 0 min 0,0 km/h (0 Bft)
18.07.2009 18:24 22,8 C 19,5 C 1,2 UV-I 0,9 C 52 % 64 % 26 % 1011,3 hPa 0,0 l/m 3,6 km/h (1 Bft) 0 min 8,9 km/h (2 Bft)
18.07.2009 18:26 22,8 C 19,5 C 1,0 UV-I 0,8 C 52 % 64 % 23 % 1011,3 hPa 0,0 l/m 3,1 km/h (1 Bft) 0 min 3,8 km/h (1 Bft)
18.07.2009 18:28 22,8 C 19,5 C 1,0 UV-I 0,6 C 52 % 64 % 17 % 1011,3 hPa 0,0 l/m 2,9 km/h (1 Bft) 0 min 8,2 km/h (2 Bft)
18.07.2009 18:30 22,8 C 19,5 C 1,0 UV-I 0,6 C 52 % 64 % 17 % 1011,3 hPa 0,0 l/m 2,2 km/h (1 Bft) 0 min 2,4 km/h (1 Bft)
18.07.2009 18:32 22,8 C 19,5 C 1,6 UV-I 0,6 C 52 % 64 % 17 % 1011,3 hPa 0,0 l/m 2,4 km/h (1 Bft) 0 min 6,0 km/h (2 Bft)
18.07.2009 18:34 22,8 C 19,5 C 1,6 UV-I 0,6 C 52 % 64 % 17 % 1011,3 hPa 0,0 l/m 2,2 km/h (1 Bft) 0 min 3,8 km/h (1 Bft)
18.07.2009 18:36 22,8 C 19,6 C 1,0 UV-I 0,3 C 52 % 64 % 9 % 1011,3 hPa 0,0 l/m 1,9 km/h (1 Bft) 0 min 4,3 km/h (1 Bft)
18.07.2009 18:38 22,8 C 19,5 C 1,0 UV-I 0,3 C 52 % 64 % 9 % 1011,6 hPa 0,0 l/m 1,9 km/h (1 Bft) 0 min 2,4 km/h (1 Bft)
18.07.2009 18:40 22,8 C 19,6 C 1,0 UV-I 0,1 C 52 % 64 % 3 % 1011,6 hPa 0,0 l/m 2,4 km/h (1 Bft) 0 min 5,3 km/h (1 Bft)
18.07.2009 18:42 22,8 C 19,7 C 0,8 UV-I 0,0 C 52 % 64 % 0 % 1011,6 hPa 0,0 l/m 2,2 km/h (1 Bft) 0 min 3,6 km/h (1 Bft)
18.07.2009 18:44 22,8 C 19,5 C 0,8 UV-I 0,0 C 52 % 64 % 0 % 1011,6 hPa 0,0 l/m 1,9 km/h (1 Bft) 0 min 2,9 km/h (1 Bft)
18.07.2009 18:46 22,8 C 19,5 C 1,2 UV-I 0,0 C 52 % 65 % 0 % 1011,6 hPa 0,0 l/m 2,4 km/h (1 Bft) 0 min 0,0 km/h (0 Bft)
18.07.2009 18:48 22,8 C 19,6 C 1,2 UV-I 0,0 C 52 % 64 % 0 % 1011,6 hPa 0,0 l/m 2,2 km/h (1 Bft) 0 min 4,3 km/h (1 Bft)
18.07.2009 18:50 22,8 C 19,6 C 1,2 UV-I 0,0 C 52 % 64 % 0 % 1011,6 hPa 0,0 l/m 1,9 km/h (1 Bft) 0 min 4,6 km/h (1 Bft)
18.07.2009 18:52 22,8 C 19,6 C 1,2 UV-I 0,0 C 52 % 64 % 0 % 1011,6 hPa 0,0 l/m 1,9 km/h (1 Bft) 0 min 4,3 km/h (1 Bft)
18.07.2009 18:54 22,8 C 19,5 C 1,2 UV-I 0,0 C 52 % 64 % 0 % 1011,6 hPa 0,0 l/m 1,7 km/h (1 Bft) 0 min 3,6 km/h (1 Bft)
18.07.2009 18:56 22,8 C 19,5 C 0,5 UV-I 0,0 C 52 % 65 % 0 % 1011,6 hPa 0,0 l/m 1,2 km/h (1 Bft) 0 min 0,0 km/h (0 Bft)
18.07.2009 18:58 22,8 C 19,5 C 0,5 UV-I 0,0 C 52 % 65 % 0 % 1011,3 hPa 0,0 l/m 1,2 km/h (1 Bft) 0 min 0,0 km/h (0 Bft)
18.07.2009 19:00 22,8 C 19,5 C 0,5 UV-I 0,0 C 52 % 64 % 0 % 1011,3 hPa 0,0 l/m 1,0 km/h (0 Bft) 0 min 2,4 km/h (1 Bft)
18.07.2009 19:02 22,8 C 19,5 C 0,5 UV-I 0,0 C 53 % 65 % 0 % 1011,3 hPa 0,0 l/m 1,0 km/h (0 Bft) 0 min 0,0 km/h (0 Bft)
18.07.2009 19:04 22,8 C 19,5 C 0,0 UV-I 0,0 C 53 % 66 % 0 % 1011,3 hPa 0,0 l/m 0,7 km/h (0 Bft) 0 min 0,0 km/h (0 Bft)
18.07.2009 19:06 22,8 C 19,5 C 0,0 UV-I 0,0 C 53 % 66 % 0 % 1011,3 hPa 0,0 l/m 0,5 km/h (0 Bft) 0 min 0,0 km/h (0 Bft)
18.07.2009 19:08 22,8 C 19,5 C 0,0 UV-I 0,0 C 53 % 66 % 0 % 1011,3 hPa 0,0 l/m 0,5 km/h (0 Bft) 0 min 0,0 km/h (0 Bft)
18.07.2009 19:10 22,8 C 19,4 C 0,0 UV-I 0,0 C 53 % 65 % 0 % 1011,3 hPa 0,0 l/m 0,5 km/h (0 Bft) 0 min 0,0 km/h (0 Bft)
18.07.2009 19:12 22,8 C 19,4 C 0,4 UV-I 0,0 C 53 % 65 % 0 % 1011,3 hPa 0,0 l/m 0,7 km/h (0 Bft) 0 min 4,3 km/h (1 Bft)
18.07.2009 19:14 22,8 C 19,4 C 0,4 UV-I 0,0 C 53 % 64 % 0 % 1011,3 hPa 0,0 l/m 0,7 km/h (0 Bft) 0 min 0,0 km/h (0 Bft)
18.07.2009 19:16 22,8 C 19,4 C 1,0 UV-I 0,0 C 53 % 63 % 0 % 1011,3 hPa 0,0 l/m 1,4 km/h (1 Bft) 0 min 7,9 km/h (2 Bft)
18.07.2009 19:18 22,8 C 19,5 C 1,0 UV-I 0,0 C 53 % 63 % 0 % 1011,2 hPa 0,0 l/m 2,4 km/h (1 Bft) 0 min 4,6 km/h (1 Bft)
18.07.2009 19:20 22,8 C 19,5 C 1,0 UV-I 0,0 C 53 % 63 % 0 % 1011,2 hPa 0,0 l/m 2,9 km/h (1 Bft) 0 min 3,8 km/h (1 Bft)
18.07.2009 19:22 22,8 C 19,5 C 1,0 UV-I 0,0 C 53 % 62 % 0 % 1011,2 hPa 0,0 l/m 2,6 km/h (1 Bft) 0 min 5,5 km/h (1 Bft)
18.07.2009 19:24 22,8 C 19,5 C 0,7 UV-I 0,0 C 53 % 61 % 0 % 1011,2 hPa 0,0 l/m 3,1 km/h (1 Bft) 0 min 3,1 km/h (1 Bft)
18.07.2009 19:26 22,8 C 19,5 C 0,9 UV-I 0,0 C 53 % 60 % 0 % 1011,2 hPa 0,0 l/m 3,1 km/h (1 Bft) 0 min 2,9 km/h (1 Bft)
18.07.2009 19:28 22,8 C 19,5 C 0,9 UV-I 0,0 C 52 % 60 % 0 % 1011,2 hPa 0,0 l/m 2,6 km/h (1 Bft) 0 min 3,8 km/h (1 Bft)
18.07.2009 19:30 22,8 C 19,5 C 0,9 UV-I 0,0 C 52 % 59 % 0 % 1011,2 hPa 0,0 l/m 2,2 km/h (1 Bft) 0 min 5,1 km/h (1 Bft)
18.07.2009 19:32 22,8 C 19,6 C 0,9 UV-I 0,0 C 52 % 59 % 0 % 1011,2 hPa 0,0 l/m 2,4 km/h (1 Bft) 0 min 0,0 km/h (0 Bft)
18.07.2009 19:34 22,8 C 19,6 C 0,9 UV-I 0,0 C 52 % 59 % 0 % 1011,2 hPa 0,0 l/m 2,2 km/h (1 Bft) 0 min 8,2 km/h (2 Bft)
18.07.2009 19:36 22,8 C 19,6 C 0,9 UV-I 0,0 C 52 % 58 % 0 % 1011,2 hPa 0,0 l/m 2,2 km/h (1 Bft) 0 min 2,9 km/h (1 Bft)
18.07.2009 19:38 22,8 C 19,6 C 0,9 UV-I 0,1 C 52 % 58 % 3 % 1011,5 hPa 0,0 l/m 1,9 km/h (1 Bft) 0 min 0,0 km/h (0 Bft)
18.07.2009 19:40 22,8 C 19,6 C 0,9 UV-I 0,1 C 52 % 57 % 3 % 1011,5 hPa 0,0 l/m 2,2 km/h (1 Bft) 0 min 2,6 km/h (1 Bft)
18.07.2009 19:42 22,8 C 19,7 C 1,0 UV-I 0,1 C 52 % 57 % 3 % 1011,5 hPa 0,0 l/m 2,2 km/h (1 Bft) 0 min 5,5 km/h (1 Bft)
18.07.2009 19:44 22,8 C 19,7 C 1,0 UV-I 0,1 C 51 % 57 % 3 % 1011,5 hPa 0,0 l/m 2,2 km/h (1 Bft) 0 min 0,0 km/h (0 Bft)
18.07.2009 19:46 22,8 C 19,7 C 0,9 UV-I 0,0 C 51 % 56 % 0 % 1011,5 hPa 0,0 l/m 1,9 km/h (1 Bft) 0 min 2,9 km/h (1 Bft)
18.07.2009 19:48 22,8 C 19,7 C 0,9 UV-I 0,0 C 51 % 56 % 0 % 1011,5 hPa 0,0 l/m 2,6 km/h (1 Bft) 0 min 5,5 km/h (1 Bft)
18.07.2009 19:50 22,8 C 19,7 C 0,9 UV-I 0,0 C 51 % 56 % 0 % 1011,5 hPa 0,0 l/m 2,2 km/h (1 Bft) 0 min 4,1 km/h (1 Bft)
18.07.2009 19:52 22,8 C 19,7 C 0,8 UV-I 0,0 C 51 % 55 % 0 % 1011,5 hPa 0,0 l/m 2,2 km/h (1 Bft) 0 min 3,8 km/h (1 Bft)
18.07.2009 19:54 22,8 C 19,7 C 0,8 UV-I 0,0 C 51 % 55 % 0 % 1011,5 hPa 0,0 l/m 2,6 km/h (1 Bft) 0 min 9,9 km/h (2 Bft)
18.07.2009 19:56 22,8 C 19,7 C 1,0 UV-I 0,0 C 51 % 56 % 0 % 1011,5 hPa 0,0 l/m 2,9 km/h (1 Bft) 0 min 3,6 km/h (1 Bft)
18.07.2009 19:58 22,8 C 19,7 C 1,0 UV-I 0,1 C 51 % 55 % 3 % 1011,7 hPa 0,0 l/m 2,9 km/h (1 Bft) 0 min 4,8 km/h (1 Bft)
18.07.2009 20:00 22,8 C 19,7 C 1,0 UV-I 0,1 C 51 % 55 % 3 % 1011,7 hPa 0,0 l/m 2,6 km/h (1 Bft) 0 min 0,0 km/h (0 Bft)
18.07.2009 20:02 22,7 C 19,7 C 1,0 UV-I 0,1 C 51 % 53 % 3 % 1011,7 hPa 0,0 l/m 3,1 km/h (1 Bft) 0 min 5,8 km/h (2 Bft)
18.07.2009 20:04 22,8 C 19,8 C 1,0 UV-I 0,0 C 50 % 53 % 0 % 1011,7 hPa 0,0 l/m 3,6 km/h (1 Bft) 0 min 7,7 km/h (2 Bft)
18.07.2009 20:06 22,7 C 19,7 C 0,8 UV-I 0,0 C 50 % 52 % 0 % 1011,7 hPa 0,0 l/m 3,6 km/h (1 Bft) 0 min 6,5 km/h (2 Bft)
18.07.2009 20:08 22,7 C 19,7 C 0,8 UV-I 0,0 C 50 % 52 % 0 % 1011,7 hPa 0,0 l/m 4,1 km/h (1 Bft) 0 min 5,3 km/h (1 Bft)
18.07.2009 20:10 22,7 C 19,7 C 0,8 UV-I 0,0 C 50 % 51 % 0 % 1011,7 hPa 0,0 l/m 4,1 km/h (1 Bft) 0 min 0,0 km/h (0 Bft)
18.07.2009 20:12 22,7 C 19,7 C 0,8 UV-I 0,0 C 50 % 52 % 0 % 1011,7 hPa 0,0 l/m 4,6 km/h (1 Bft) 0 min 10,3 km/h (2 Bft)
18.07.2009 20:14 22,7 C 19,7 C 0,8 UV-I 0,0 C 49 % 51 % 0 % 1011,7 hPa 0,0 l/m 3,8 km/h (1 Bft) 0 min 0,0 km/h (0 Bft)
18.07.2009 20:16 22,7 C 19,7 C 0,5 UV-I 0,0 C 49 % 51 % 0 % 1011,7 hPa 0,0 l/m 3,6 km/h (1 Bft) 0 min 3,8 km/h (1 Bft)
18.07.2009 20:18 22,7 C 19,7 C 0,5 UV-I 0,0 C 49 % 51 % 0 % 1011,8 hPa 0,0 l/m 3,6 km/h (1 Bft) 0 min 12,5 km/h (3 Bft)
18.07.2009 20:20 22,7 C 19,6 C 0,5 UV-I 0,0 C 49 % 51 % 0 % 1011,8 hPa 0,0 l/m 3,4 km/h (1 Bft) 0 min 3,8 km/h (1 Bft)
18.07.2009 20:22 22,7 C 19,7 C 0,6 UV-I 0,0 C 49 % 51 % 0 % 1011,8 hPa 0,0 l/m 3,6 km/h (1 Bft) 0 min 11,1 km/h (2 Bft)
18.07.2009 20:24 22,7 C 19,6 C 0,6 UV-I 0,0 C 49 % 51 % 0 % 1011,8 hPa 0,0 l/m 3,1 km/h (1 Bft) 0 min 2,4 km/h (1 Bft)
18.07.2009 20:26 22,7 C 19,6 C 0,5 UV-I 0,0 C 49 % 51 % 0 % 1011,8 hPa 0,0 l/m 3,4 km/h (1 Bft) 0 min 11,1 km/h (2 Bft)
18.07.2009 20:28 22,7 C 19,7 C 0,5 UV-I 0,0 C 49 % 51 % 0 % 1011,8 hPa 0,0 l/m 3,1 km/h (1 Bft) 0 min 2,6 km/h (1 Bft)
18.07.2009 20:30 22,7 C 19,6 C 0,5 UV-I 0,0 C 49 % 51 % 0 % 1011,8 hPa 0,0 l/m 3,1 km/h (1 Bft) 0 min 7,5 km/h (2 Bft)
18.07.2009 20:32 22,7 C 19,6 C 0,5 UV-I 0,0 C 49 % 51 % 0 % 1011,8 hPa 0,0 l/m 3,1 km/h (1 Bft) 0 min 0,0 km/h (0 Bft)
18.07.2009 20:34 22,7 C 19,5 C 0,5 UV-I 0,0 C 49 % 51 % 0 % 1011,8 hPa 0,0 l/m 3,1 km/h (1 Bft) 0 min 12,8 km/h (3 Bft)
18.07.2009 20:36 22,6 C 19,5 C 0,5 UV-I 0,0 C 48 % 51 % 0 % 1011,8 hPa 0,0 l/m 2,9 km/h (1 Bft) 0 min 0,0 km/h (0 Bft)
18.07.2009 20:38 22,6 C 19,5 C 0,5 UV-I 0,0 C 48 % 50 % 0 % 1011,9 hPa 0,0 l/m 2,9 km/h (1 Bft) 0 min 6,0 km/h (2 Bft)
18.07.2009 20:40 22,6 C 19,5 C 0,5 UV-I 0,0 C 48 % 51 % 0 % 1011,9 hPa 0,0 l/m 2,6 km/h (1 Bft) 0 min 6,0 km/h (2 Bft)
18.07.2009 20:42 22,7 C 19,5 C 0,4 UV-I 0,0 C 48 % 50 % 0 % 1011,9 hPa 0,0 l/m 2,4 km/h (1 Bft) 0 min 4,1 km/h (1 Bft)
18.07.2009 20:44 22,6 C 19,4 C 0,4 UV-I 0,0 C 48 % 51 % 0 % 1011,9 hPa 0,0 l/m 3,1 km/h (1 Bft) 0 min 9,6 km/h (2 Bft)
18.07.2009 20:46 22,6 C 19,5 C 0,4 UV-I 0,0 C 48 % 51 % 0 % 1011,9 hPa 0,0 l/m 2,9 km/h (1 Bft) 0 min 3,1 km/h (1 Bft)
18.07.2009 20:48 22,6 C 19,5 C 0,4 UV-I 0,0 C 48 % 51 % 0 % 1011,9 hPa 0,0 l/m 2,6 km/h (1 Bft) 0 min 0,0 km/h (0 Bft)
18.07.2009 20:50 22,6 C 19,5 C 0,4 UV-I 0,0 C 48 % 51 % 0 % 1011,9 hPa 0,0 l/m 3,1 km/h (1 Bft) 0 min 4,8 km/h (1 Bft)
18.07.2009 20:52 22,6 C 19,3 C 0,4 UV-I 0,0 C 48 % 51 % 0 % 1011,9 hPa 0,0 l/m 2,4 km/h (1 Bft) 0 min 0,0 km/h (0 Bft)
18.07.2009 20:54 22,6 C 19,3 C 0,4 UV-I 0,0 C 48 % 52 % 0 % 1011,9 hPa 0,0 l/m 1,7 km/h (1 Bft) 0 min 0,0 km/h (0 Bft)
18.07.2009 20:56 22,6 C 19,2 C 0,2 UV-I 0,0 C 48 % 51 % 0 % 1011,9 hPa 0,0 l/m 1,2 km/h (1 Bft) 0 min 0,0 km/h (0 Bft)
18.07.2009 20:58 22,6 C 19,3 C 0,2 UV-I 0,0 C 48 % 52 % 0 % 1011,7 hPa 0,0 l/m 1,2 km/h (1 Bft) 0 min 0,0 km/h (0 Bft)
18.07.2009 21:00 22,6 C 19,2 C 0,2 UV-I 0,0 C 48 % 52 % 0 % 1011,7 hPa 0,0 l/m 1,2 km/h (1 Bft) 0 min 0,0 km/h (0 Bft)
18.07.2009 21:02 22,6 C 19,2 C 0,2 UV-I 0,0 C 48 % 52 % 0 % 1011,7 hPa 0,0 l/m 1,0 km/h (0 Bft) 0 min 0,0 km/h (0 Bft)
18.07.2009 21:04 22,6 C 19,1 C 0,2 UV-I 0,0 C 48 % 52 % 0 % 1011,7 hPa 0,0 l/m 1,4 km/h (1 Bft) 0 min 2,6 km/h (1 Bft)
18.07.2009 21:06 22,6 C 19,0 C 0,1 UV-I 0,0 C 48 % 52 % 0 % 1011,7 hPa 0,0 l/m 1,7 km/h (1 Bft) 0 min 10,3 km/h (2 Bft)
18.07.2009 21:08 22,5 C 19,1 C 0,1 UV-I 0,0 C 48 % 52 % 0 % 1011,7 hPa 0,0 l/m 1,7 km/h (1 Bft) 0 min 0,0 km/h (0 Bft)
18.07.2009 21:10 22,5 C 18,9 C 0,1 UV-I 0,0 C 48 % 53 % 0 % 1011,7 hPa 0,0 l/m 1,9 km/h (1 Bft) 0 min 2,9 km/h (1 Bft)
18.07.2009 21:12 22,5 C 18,9 C 0,1 UV-I 0,0 C 48 % 53 % 0 % 1011,7 hPa 0,0 l/m 1,9 km/h (1 Bft) 0 min 0,0 km/h (0 Bft)
18.07.2009 21:14 22,5 C 18,8 C 0,1 UV-I 0,0 C 48 % 53 % 0 % 1011,7 hPa 0,0 l/m 1,4 km/h (1 Bft) 0 min 2,4 km/h (1 Bft)
18.07.2009 21:16 22,5 C 18,8 C 0,0 UV-I 0,0 C 48 % 53 % 0 % 1011,7 hPa 0,0 l/m 1,4 km/h (1 Bft) 0 min 4,6 km/h (1 Bft)
18.07.2009 21:18 22,5 C 18,8 C 0,0 UV-I 0,0 C 48 % 53 % 0 % 1011,8 hPa 0,0 l/m 1,2 km/h (1 Bft) 0 min 5,1 km/h (1 Bft)
18.07.2009 21:20 22,5 C 18,7 C 0,0 UV-I 0,0 C 48 % 53 % 0 % 1011,8 hPa 0,0 l/m 1,4 km/h (1 Bft) 0 min 0,0 km/h (0 Bft)
18.07.2009 21:22 22,5 C 18,7 C 0,0 UV-I 0,0 C 48 % 53 % 0 % 1011,8 hPa 0,0 l/m 1,0 km/h (0 Bft) 0 min 0,0 km/h (0 Bft)
18.07.2009 21:24 22,5 C 18,6 C 0,0 UV-I 0,0 C 48 % 53 % 0 % 1011,8 hPa 0,0 l/m 1,2 km/h (1 Bft) 0 min 0,0 km/h (0 Bft)
18.07.2009 21:26 22,4 C 18,7 C 0,0 UV-I 0,0 C 48 % 54 % 0 % 1011,8 hPa 0,0 l/m 1,2 km/h (1 Bft) 0 min 0,0 km/h (0 Bft)
18.07.2009 21:28 22,4 C 18,5 C 0,0 UV-I 0,0 C 48 % 54 % 0 % 1011,8 hPa 0,0 l/m 1,0 km/h (0 Bft) 0 min 2,4 km/h (1 Bft)
18.07.2009 21:30 22,4 C 18,5 C 0,0 UV-I 0,0 C 48 % 54 % 0 % 1011,8 hPa 0,0 l/m 0,7 km/h (0 Bft) 0 min 0,0 km/h (0 Bft)
18.07.2009 21:32 22,4 C 18,4 C 0,0 UV-I 0,0 C 48 % 54 % 0 % 1011,8 hPa 0,0 l/m 0,7 km/h (0 Bft) 0 min 0,0 km/h (0 Bft)
18.07.2009 21:34 22,4 C 18,5 C 0,0 UV-I 0,0 C 48 % 54 % 0 % 1011,8 hPa 0,0 l/m 0,7 km/h (0 Bft) 0 min 3,1 km/h (1 Bft)
18.07.2009 21:36 22,4 C 18,3 C 0,0 UV-I 0,0 C 48 % 54 % 0 % 1011,8 hPa 0,0 l/m 0,7 km/h (0 Bft) 0 min 0,0 km/h (0 Bft)
18.07.2009 21:38 22,4 C 18,3 C 0,0 UV-I 0,0 C 48 % 54 % 0 % 1012,1 hPa 0,0 l/m 0,5 km/h (0 Bft) 0 min 0,0 km/h (0 Bft)
18.07.2009 21:40 22,4 C 18,3 C 0,0 UV-I 0,0 C 48 % 55 % 0 % 1012,1 hPa 0,0 l/m 0,7 km/h (0 Bft) 0 min 3,8 km/h (1 Bft)
18.07.2009 21:42 22,4 C 18,2 C 0,0 UV-I 0,0 C 48 % 55 % 0 % 1012,1 hPa 0,0 l/m 0,7 km/h (0 Bft) 0 min 3,4 km/h (1 Bft)
18.07.2009 21:44 22,4 C 18,1 C 0,0 UV-I 0,0 C 48 % 55 % 0 % 1012,1 hPa 0,0 l/m 0,7 km/h (0 Bft) 0 min 0,0 km/h (0 Bft)
18.07.2009 21:46 22,4 C 18,0 C 0,0 UV-I 0,0 C 48 % 55 % 0 % 1012,1 hPa 0,0 l/m 0,7 km/h (0 Bft) 0 min 5,3 km/h (1 Bft)
18.07.2009 21:48 22,4 C 18,0 C 0,0 UV-I 0,0 C 48 % 55 % 0 % 1012,1 hPa 0,0 l/m 1,4 km/h (1 Bft) 0 min 3,6 km/h (1 Bft)
18.07.2009 21:50 22,4 C 18,1 C 0,0 UV-I 0,0 C 48 % 55 % 0 % 1012,1 hPa 0,0 l/m 1,7 km/h (1 Bft) 0 min 6,5 km/h (2 Bft)
18.07.2009 21:52 22,3 C 18,0 C 0,0 UV-I 0,0 C 48 % 56 % 0 % 1012,1 hPa 0,0 l/m 1,7 km/h (1 Bft) 0 min 0,0 km/h (0 Bft)
18.07.2009 21:54 22,3 C 17,9 C 0,0 UV-I 0,0 C 48 % 56 % 0 % 1012,1 hPa 0,0 l/m 1,4 km/h (1 Bft) 0 min 2,6 km/h (1 Bft)
18.07.2009 21:56 22,3 C 17,9 C 0,0 UV-I 0,0 C 48 % 56 % 0 % 1012,1 hPa 0,0 l/m 1,7 km/h (1 Bft) 0 min 4,1 km/h (1 Bft)
18.07.2009 21:58 22,2 C 17,9 C 0,0 UV-I 0,0 C 48 % 56 % 0 % 1012,2 hPa 0,0 l/m 1,2 km/h (1 Bft) 0 min 0,0 km/h (0 Bft)
18.07.2009 22:00 22,2 C 17,9 C 0,0 UV-I 0,0 C 48 % 56 % 0 % 1012,2 hPa 0,0 l/m 0,7 km/h (0 Bft) 0 min 0,0 km/h (0 Bft)
18.07.2009 22:02 22,2 C 17,7 C 0,0 UV-I 0,0 C 48 % 57 % 0 % 1012,2 hPa 0,0 l/m 0,5 km/h (0 Bft) 0 min 4,3 km/h (1 Bft)
18.07.2009 22:04 22,2 C 17,7 C 0,0 UV-I 0,0 C 48 % 57 % 0 % 1012,2 hPa 0,0 l/m 0,5 km/h (0 Bft) 0 min 0,0 km/h (0 Bft)
18.07.2009 22:06 22,2 C 17,6 C 0,0 UV-I 0,0 C 48 % 57 % 0 % 1012,2 hPa 0,0 l/m 0,5 km/h (0 Bft) 0 min 0,0 km/h (0 Bft)
18.07.2009 22:08 22,2 C 17,6 C 0,0 UV-I 0,0 C 48 % 57 % 0 % 1012,2 hPa 0,0 l/m 0,7 km/h (0 Bft) 0 min 2,6 km/h (1 Bft)
18.07.2009 22:10 22,2 C 17,6 C 0,0 UV-I 0,0 C 48 % 57 % 0 % 1012,2 hPa 0,0 l/m 0,7 km/h (0 Bft) 0 min 0,0 km/h (0 Bft)
18.07.2009 22:12 22,2 C 17,5 C 0,0 UV-I 0,0 C 48 % 57 % 0 % 1012,2 hPa 0,0 l/m 0,7 km/h (0 Bft) 0 min 0,0 km/h (0 Bft)
18.07.2009 22:14 22,1 C 17,5 C 0,0 UV-I 0,0 C 48 % 58 % 0 % 1012,2 hPa 0,0 l/m 0,5 km/h (0 Bft) 0 min 0,0 km/h (0 Bft)
18.07.2009 22:16 22,1 C 17,5 C 0,0 UV-I 0,0 C 48 % 58 % 0 % 1012,2 hPa 0,0 l/m 0,5 km/h (0 Bft) 0 min 0,0 km/h (0 Bft)
18.07.2009 22:18 22,1 C 17,4 C 0,0 UV-I 0,0 C 48 % 58 % 0 % 1012,5 hPa 0,0 l/m 0,2 km/h (0 Bft) 0 min 0,0 km/h (0 Bft)
18.07.2009 22:20 22,1 C 17,3 C 0,0 UV-I 0,0 C 48 % 58 % 0 % 1012,5 hPa 0,0 l/m 0,0 km/h (0 Bft) 0 min 0,0 km/h (0 Bft)
18.07.2009 22:22 22,1 C 17,3 C 0,0 UV-I 0,0 C 48 % 58 % 0 % 1012,5 hPa 0,0 l/m 0,0 km/h (0 Bft) 0 min 0,0 km/h (0 Bft)
18.07.2009 22:24 22,1 C 17,2 C 0,0 UV-I 0,0 C 48 % 58 % 0 % 1012,5 hPa 0,0 l/m 0,0 km/h (0 Bft) 0 min 0,0 km/h (0 Bft)
18.07.2009 22:26 22,1 C 17,2 C 0,0 UV-I 0,0 C 48 % 59 % 0 % 1012,5 hPa 0,0 l/m 0,0 km/h (0 Bft) 0 min 0,0 km/h (0 Bft)
18.07.2009 22:28 22,1 C 17,2 C 0,0 UV-I 0,0 C 48 % 59 % 0 % 1012,5 hPa 0,0 l/m 0,0 km/h (0 Bft) 0 min 0,0 km/h (0 Bft)
18.07.2009 22:30 22,0 C 17,1 C 0,0 UV-I 0,0 C 48 % 59 % 0 % 1012,5 hPa 0,0 l/m 0,2 km/h (0 Bft) 0 min 0,0 km/h (0 Bft)
18.07.2009 22:32 22,0 C 17,1 C 0,0 UV-I 0,0 C 48 % 59 % 0 % 1012,5 hPa 0,0 l/m 0,5 km/h (0 Bft) 0 min 2,6 km/h (1 Bft)
18.07.2009 22:34 22,0 C 17,1 C 0,0 UV-I 0,0 C 48 % 59 % 0 % 1012,5 hPa 0,0 l/m 0,7 km/h (0 Bft) 0 min 5,3 km/h (1 Bft)
18.07.2009 22:36 22,0 C 17,1 C 0,0 UV-I 0,0 C 48 % 59 % 0 % 1012,5 hPa 0,0 l/m 1,0 km/h (0 Bft) 0 min 0,0 km/h (0 Bft)
18.07.2009 22:38 22,0 C 17,1 C 0,0 UV-I 0,0 C 48 % 59 % 0 % 1012,8 hPa 0,0 l/m 1,4 km/h (1 Bft) 0 min 4,3 km/h (1 Bft)
18.07.2009 22:40 22,0 C 17,0 C 0,0 UV-I 0,0 C 48 % 60 % 0 % 1012,8 hPa 0,0 l/m 1,4 km/h (1 Bft) 0 min 4,3 km/h (1 Bft)
18.07.2009 22:42 22,0 C 16,9 C 0,0 UV-I 0,0 C 48 % 60 % 0 % 1012,8 hPa 0,0 l/m 1,4 km/h (1 Bft) 0 min 0,0 km/h (0 Bft)
18.07.2009 22:44 22,0 C 16,9 C 0,0 UV-I 0,0 C 48 % 60 % 0 % 1012,8 hPa 0,0 l/m 1,2 km/h (1 Bft) 0 min 0,0 km/h (0 Bft)
18.07.2009 22:46 22,0 C 16,8 C 0,0 UV-I 0,0 C 48 % 60 % 0 % 1012,8 hPa 0,0 l/m 1,0 km/h (0 Bft) 0 min 0,0 km/h (0 Bft)
18.07.2009 22:48 21,9 C 16,9 C 0,0 UV-I 0,0 C 48 % 60 % 0 % 1012,8 hPa 0,0 l/m 1,0 km/h (0 Bft) 0 min 0,0 km/h (0 Bft)
18.07.2009 22:50 21,9 C 16,8 C 0,0 UV-I 0,0 C 48 % 60 % 0 % 1012,8 hPa 0,0 l/m 0,5 km/h (0 Bft) 0 min 0,0 km/h (0 Bft)
18.07.2009 22:52 21,9 C 16,7 C 0,0 UV-I 0,0 C 48 % 60 % 0 % 1012,8 hPa 0,0 l/m 0,2 km/h (0 Bft) 0 min 0,0 km/h (0 Bft)
18.07.2009 22:54 21,9 C 16,7 C 0,0 UV-I 0,0 C 48 % 60 % 0 % 1012,8 hPa 0,0 l/m 0,5 km/h (0 Bft) 0 min 4,8 km/h (1 Bft)
18.07.2009 22:56 21,9 C 16,6 C 0,0 UV-I 0,0 C 48 % 61 % 0 % 1012,8 hPa 0,0 l/m 0,2 km/h (0 Bft) 0 min 0,0 km/h (0 Bft)
18.07.2009 22:58 21,9 C 16,6 C 0,0 UV-I 0,0 C 48 % 61 % 0 % 1012,6 hPa 0,0 l/m 0,5 km/h (0 Bft) 0 min 5,8 km/h (2 Bft)
18.07.2009 23:00 21,8 C 16,7 C 0,0 UV-I 0,0 C 48 % 61 % 0 % 1012,6 hPa 0,0 l/m 0,5 km/h (0 Bft) 0 min 3,4 km/h (1 Bft)
18.07.2009 23:02 21,8 C 16,6 C 0,0 UV-I 0,0 C 48 % 61 % 0 % 1012,6 hPa 0,0 l/m 0,7 km/h (0 Bft) 0 min 0,0 km/h (0 Bft)
18.07.2009 23:04 21,8 C 16,5 C 0,0 UV-I 0,0 C 48 % 61 % 0 % 1012,6 hPa 0,0 l/m 1,2 km/h (1 Bft) 0 min 0,0 km/h (0 Bft)
18.07.2009 23:06 21,8 C 16,5 C 0,0 UV-I 0,0 C 48 % 61 % 0 % 1012,6 hPa 0,0 l/m 1,0 km/h (0 Bft) 0 min 4,1 km/h (1 Bft)
18.07.2009 23:08 21,8 C 16,5 C 0,0 UV-I 0,0 C 48 % 61 % 0 % 1012,6 hPa 0,0 l/m 1,0 km/h (0 Bft) 0 min 0,0 km/h (0 Bft)
18.07.2009 23:10 21,8 C 16,4 C 0,0 UV-I 0,0 C 48 % 61 % 0 % 1012,6 hPa 0,0 l/m 1,4 km/h (1 Bft) 0 min 2,9 km/h (1 Bft)
18.07.2009 23:12 21,8 C 16,5 C 0,0 UV-I 0,0 C 48 % 61 % 0 % 1012,6 hPa 0,0 l/m 1,2 km/h (1 Bft) 0 min 0,0 km/h (0 Bft)
18.07.2009 23:14 21,7 C 16,5 C 0,0 UV-I 0,0 C 48 % 61 % 0 % 1012,6 hPa 0,0 l/m 1,2 km/h (1 Bft) 0 min 0,0 km/h (0 Bft)
18.07.2009 23:16 21,7 C 16,4 C 0,0 UV-I 0,0 C 48 % 61 % 0 % 1012,6 hPa 0,0 l/m 1,2 km/h (1 Bft) 0 min 0,0 km/h (0 Bft)
18.07.2009 23:18 21,7 C 16,4 C 0,0 UV-I 0,0 C 48 % 61 % 0 % 1012,8 hPa 0,0 l/m 1,0 km/h (0 Bft) 0 min 0,0 km/h (0 Bft)
18.07.2009 23:20 21,7 C 16,3 C 0,0 UV-I 0,0 C 48 % 61 % 0 % 1012,8 hPa 0,0 l/m 1,0 km/h (0 Bft) 0 min 0,0 km/h (0 Bft)
18.07.2009 23:22 21,7 C 16,3 C 0,0 UV-I 0,0 C 48 % 61 % 0 % 1012,8 hPa 0,0 l/m 0,5 km/h (0 Bft) 0 min 0,0 km/h (0 Bft)
18.07.2009 23:24 21,7 C 16,2 C 0,0 UV-I 0,0 C 48 % 61 % 0 % 1012,8 hPa 0,0 l/m 0,5 km/h (0 Bft) 0 min 0,0 km/h (0 Bft)
18.07.2009 23:26 21,6 C 16,2 C 0,0 UV-I 0,0 C 48 % 61 % 0 % 1012,8 hPa 0,0 l/m 0,5 km/h (0 Bft) 0 min 0,0 km/h (0 Bft)
18.07.2009 23:28 21,7 C 16,3 C 0,0 UV-I 0,0 C 48 % 61 % 0 % 1012,8 hPa 0,0 l/m 0,5 km/h (0 Bft) 0 min 2,4 km/h (1 Bft)
18.07.2009 23:30 21,6 C 16,3 C 0,0 UV-I 0,0 C 48 % 61 % 0 % 1012,8 hPa 0,0 l/m 0,7 km/h (0 Bft) 0 min 0,0 km/h (0 Bft)
18.07.2009 23:32 21,6 C 16,3 C 0,0 UV-I 0,0 C 48 % 62 % 0 % 1012,8 hPa 0,0 l/m 1,0 km/h (0 Bft) 0 min 2,6 km/h (1 Bft)
18.07.2009 23:34 21,6 C 16,1 C 0,0 UV-I 0,0 C 48 % 62 % 0 % 1012,8 hPa 0,0 l/m 1,0 km/h (0 Bft) 0 min 0,0 km/h (0 Bft)
18.07.2009 23:36 21,6 C 16,2 C 0,0 UV-I 0,0 C 48 % 62 % 0 % 1012,8 hPa 0,0 l/m 1,2 km/h (1 Bft) 0 min 2,6 km/h (1 Bft)
18.07.2009 23:38 21,6 C 16,1 C 0,0 UV-I 0,0 C 48 % 62 % 0 % 1012,5 hPa 0,0 l/m 1,0 km/h (0 Bft) 0 min 3,1 km/h (1 Bft)
18.07.2009 23:40 21,6 C 16,1 C 0,0 UV-I 0,0 C 48 % 62 % 0 % 1012,5 hPa 0,0 l/m 1,0 km/h (0 Bft) 0 min 3,4 km/h (1 Bft)
18.07.2009 23:42 21,6 C 16,0 C 0,0 UV-I 0,0 C 48 % 62 % 0 % 1012,5 hPa 0,0 l/m 1,0 km/h (0 Bft) 0 min 0,0 km/h (0 Bft)
18.07.2009 23:44 21,6 C 16,0 C 0,0 UV-I 0,0 C 48 % 62 % 0 % 1012,5 hPa 0,0 l/m 0,7 km/h (0 Bft) 0 min 0,0 km/h (0 Bft)
18.07.2009 23:46 21,6 C 16,1 C 0,0 UV-I 0,0 C 48 % 62 % 0 % 1012,5 hPa 0,0 l/m 0,5 km/h (0 Bft) 0 min 0,0 km/h (0 Bft)
18.07.2009 23:48 21,6 C 16,1 C 0,0 UV-I 0,0 C 48 % 62 % 0 % 1012,5 hPa 0,0 l/m 0,5 km/h (0 Bft) 0 min 0,0 km/h (0 Bft)
18.07.2009 23:50 21,5 C 16,0 C 0,0 UV-I 0,0 C 48 % 62 % 0 % 1012,5 hPa 0,0 l/m 0,5 km/h (0 Bft) 0 min 0,0 km/h (0 Bft)
18.07.2009 23:52 21,6 C 15,9 C 0,0 UV-I 0,0 C 48 % 62 % 0 % 1012,5 hPa 0,0 l/m 0,2 km/h (0 Bft) 0 min 0,0 km/h (0 Bft)
18.07.2009 23:54 21,5 C 15,9 C 0,0 UV-I 0,0 C 48 % 62 % 0 % 1012,5 hPa 0,0 l/m 0,2 km/h (0 Bft) 0 min 0,0 km/h (0 Bft)
18.07.2009 23:56 21,5 C 15,9 C 0,0 UV-I 0,0 C 48 % 62 % 0 % 1012,5 hPa 0,0 l/m 0,2 km/h (0 Bft) 0 min 0,0 km/h (0 Bft)
18.07.2009 23:58 21,5 C 15,8 C 0,0 UV-I 0,0 C 48 % 63 % 0 % 1012,6 hPa 0,0 l/m 0,2 km/h (0 Bft) 0 min 4,6 km/h (1 Bft)
_ Min-Zeit 06:06 05:34 00:00 00:00 00:00 20:38 00:00 03:38 - 22:20 - 00:44
Minimum _ 21,2 C 14,7 C 0,0 UV-I 0,0 C 47 % 50 % 0 % 1007,6 hPa - 0,0 km/h (0 Bft) - 0,0 km/h (0 Bft)
_ Max-Zeit 00:00 17:18 12:36 12:36 07:38 07:52 12:30 22:38 07:14 11:28 12:28 13:06
Maximum _ 23,4 C 19,9 C 7,2 UV-I 3,9 C 59 % 87 % 100 % 1012,8 hPa 0,3 l/m 9,9 km/h
W-SW (2 Bft)
2 min 29,6 km/h
W-SW (5 Bft)
Durchschnitt _ 22,1 C 17,4 C 1,0 UV-I 0,3 C 52 % 68 % 8 % 1009,7 hPa #0,7 l/m 3,5 km/h (1 Bft) #18 min. 5,7 km/h (1 Bft)
© 2012 W. Hausmann